GFSFLT1_925_temp_000.txt.gz
Temp
20 17 16 16 15 15 15 14 13 13 13 13 13 13 13 13 13 13 12 12 12 12 12 11 11 11 11 11 11 11 11 11
20 17 16 16 15 15 15 14 13 13 13 14 14 14 13 13 13 12 12 12 12 12 12 12 12 11 11 11 11 11 12 11
19 18 16 15 16 15 15 15 14 14 14 14 14 14 14 14 13 12 12 12 12 12 12 12 12 12 11 11 11 11 11 11
20 18 16 15 15 15 15 15 15 14 14 13 13 13 12 13 13 13 12 11 11 11 11 11 11 11 11 11 11 11 11 11
19 19 17 16 15 15 14 15 14 14 13 14 13 14 15 14 13 13 12 11 11 11 10 10 10 10 10 10 11 10 10 11
19 19 17 17 15 15 14 14 14 14 13 12 13 13 13 13 12 11 11 11 10 10 10 10 9 9 10 9 9 10 10 10
20 17 16 16 15 14 13 13 14 13 12 12 11 12 12 12 11 11 11 10 10 10 9 8 8 8 8 8 9 9 9 9
20 20 17 16 16 14 13 13 13 13 11 11 10 10 10 10 10 10 9 9 9 8 8 7 7 7 7 7 7 8 8 8
20 19 17 17 15 15 14 13 13 13 11 10 9 8 9 9 7 8 7 7 6 6 6 6 6 6 6 6 6 7 7 8
20 19 17 16 16 15 13 13 12 11 9 8 8 7 7 7 7 6 6 6 6 6 5 4 4 4 4 5 5 6 6 7
20 19 18 16 16 15 13 11 11 10 8 7 7 7 6 6 6 5 5 5 5 4 4 4 4 3 4 4 4 5 5 6
19 19 18 17 14 12 10 10 10 9 7 6 6 6 6 5 5 5 4 4 4 3 3 3 3 3 3 3 3 3 4 4
19 18 17 15 12 11 10 9 9 8 7 6 6 6 5 5 5 4 4 3 3 2 2 2 2 2 2 2 2 2 3 3
19 18 16 14 12 11 9 9 8 7 7 6 5 5 5 5 4 4 3 2 2 2 2 2 1 1 1 1 1 1 2 2
17 16 16 13 11 10 9 8 8 7 6 6 5 5 4 4 3 3 2 2 1 1 1 1 1 0 0 0 0 0 0 -0
15 15 15 12 10 9 9 8 7 6 6 6 6 4 4 3 3 2 1 1 1 1 0 0 0 -0 -0 -0 -1 -1 -2 -2
14 14 13 11 10 9 9 7 7 7 6 6 5 3 3 3 2 1 1 1 1 1 0 -0 -0 -1 -1 -3 -4 -4 -4 -4
10 12 12 10 9 9 8 8 7 6 6 5 4 3 2 2 1 1 1 0 0 -0 -0 -1 -1 -2 -2 -4 -4 -5 -4 -4
10 10 10 9 8 9 7 7 6 5 5 4 3 2 2 1 1 1 0 -0 -1 -1 -1 -2 -2 -3 -4 -4 -5 -5 -5 -4

GFSFLT1_925_temp_003.txt.gz
Temp
25 23 21 20 20 19 18 18 17 16 16 16 16 16 16 15 15 15 14 14 13 14 14 13 13 13 13 12 12 12 12 12
26 23 21 19 19 18 18 17 17 16 16 16 16 16 16 16 15 14 14 14 13 13 14 14 13 13 12 12 12 12 12 12
25 23 21 19 19 18 18 18 17 16 17 17 17 17 16 16 16 14 13 13 13 13 13 13 13 13 13 12 12 12 12 13
24 22 21 20 19 18 18 18 18 17 16 17 16 15 15 15 15 14 14 13 13 13 13 13 12 12 12 12 12 12 12 12
24 22 22 20 19 18 18 18 18 17 16 16 16 16 16 17 17 16 15 14 13 13 13 12 12 12 12 11 12 11 11 11
24 23 22 21 20 18 17 17 17 17 16 15 15 15 15 15 15 14 13 13 13 12 12 12 11 11 11 11 11 11 11 11
24 23 22 21 20 18 17 17 17 16 16 15 14 14 14 14 14 13 12 12 12 12 11 10 10 10 10 10 10 10 10 10
23 23 22 21 20 19 17 17 16 16 16 15 14 13 13 12 12 11 11 10 10 10 9 9 8 8 8 8 8 8 8 8
22 22 21 20 20 19 18 18 17 16 16 15 13 12 11 11 11 9 9 9 9 8 7 7 7 7 7 7 7 7 7 8
22 22 21 20 19 19 19 18 17 16 15 15 13 11 10 10 9 8 8 8 8 8 7 6 6 6 6 6 6 6 6 7
22 21 20 19 19 18 18 17 17 16 15 13 10 9 8 8 8 7 7 7 7 7 6 6 6 6 5 5 5 5 6 6
21 21 20 19 18 17 16 16 15 14 13 10 9 8 8 7 7 7 7 6 6 6 5 5 5 5 5 5 5 5 5 5
21 20 19 18 18 17 16 14 13 13 10 9 8 7 7 7 6 6 6 5 5 5 5 4 4 4 4 4 4 4 4 4
20 19 18 17 17 16 14 13 12 11 9 8 7 7 7 6 6 6 5 5 5 5 4 4 4 4 4 3 3 3 3 3
19 18 17 15 16 15 13 12 10 10 9 8 8 7 6 6 5 5 5 5 4 4 3 3 3 3 3 3 3 2 2 2
18 16 14 13 14 14 12 11 10 9 8 8 7 6 6 5 5 5 4 4 3 3 3 3 3 2 2 2 2 1 0 -0
16 13 12 13 13 13 12 10 10 9 8 7 7 6 6 5 5 4 4 3 3 3 3 2 2 2 2 0 -1 -1 -2 -3
13 11 12 12 11 11 11 10 8 6 7 6 6 6 5 4 4 4 3 3 2 2 2 2 1 1 -0 -1 -3 -3 -4 -4
9 11 11 11 9 10 9 6 6 6 6 7 6 5 4 4 4 3 3 2 2 1 1 0 -0 -1 -2 -3 -4 -4 -5 -5

GFSFLT1_925_temp_006.txt.gz
Temp
27 26 25 23 22 21 20 19 18 18 18 17 17 16 16 16 16 15 14 14 13 14 14 13 13 13 13 12 12 12 12 12
28 26 24 22 21 20 19 19 18 17 17 16 16 16 16 16 16 16 15 14 14 13 14 14 14 13 13 13 12 12 12 12
26 25 23 22 21 20 19 18 18 17 17 17 17 17 17 16 16 16 14 14 14 14 13 13 13 13 12 12 12 12 12 12
24 24 23 22 20 20 19 19 18 18 17 17 17 17 16 16 16 15 14 14 14 13 13 13 13 12 12 12 12 12 11 11
24 24 23 22 21 20 19 19 19 18 18 17 16 17 15 15 15 15 15 15 13 13 13 13 12 12 12 12 11 11 11 10
23 23 23 22 21 20 19 18 18 18 18 17 16 16 16 16 15 15 15 14 13 13 12 12 12 11 11 10 10 10 10 10
22 23 23 22 21 20 19 18 18 17 17 17 17 15 15 14 14 13 13 13 12 12 11 10 10 9 9 9 9 9 9 9
21 21 21 21 21 20 19 18 17 17 17 17 16 15 14 13 13 12 12 11 10 10 9 8 8 8 8 8 8 7 7 7
22 22 21 21 20 20 20 19 19 18 17 17 16 15 14 13 12 12 10 9 9 9 8 8 7 7 7 7 6 6 6 7
22 22 21 20 20 19 19 18 18 18 17 17 16 15 14 12 11 10 9 8 8 8 7 7 6 6 6 6 6 6 6 6
21 21 20 19 19 18 18 18 17 16 16 16 15 13 11 10 9 8 8 7 6 6 6 6 6 6 5 5 5 5 5 5
21 20 20 18 18 17 16 17 16 15 14 13 12 10 9 8 7 7 6 6 5 5 6 5 5 5 5 5 5 5 4 4
20 19 19 18 17 15 15 16 15 14 13 11 9 9 8 7 7 6 5 6 5 5 5 5 5 5 5 4 4 4 4 4
19 19 17 16 15 14 14 15 14 13 11 10 8 8 7 7 6 5 4 5 5 5 5 5 4 4 4 4 3 3 3 3
19 17 16 15 14 13 14 14 13 11 10 9 8 7 7 7 6 5 5 5 5 4 4 4 3 3 3 3 3 3 3 2
15 14 15 14 13 13 13 13 12 11 10 9 9 7 6 5 6 5 5 4 4 4 3 3 3 3 3 3 2 1 0 0
13 14 12 12 12 12 11 11 11 10 9 7 5 5 6 6 5 5 4 4 4 3 3 3 2 2 2 1 0 -1 -2 -2
13 11 11 12 11 10 9 9 7 6 5 4 4 4 6 5 5 4 4 4 3 3 2 2 1 1 0 -1 -2 -3 -3 -3
11 11 11 11 9 7 7 6 6 5 4 4 5 6 5 5 4 4 3 3 2 2 1 1 -0 -1 -2 -3 -3 -4 -4 -4

GFSFLT1_925_temp_009.txt.gz
Temp
24 25 24 23 22 21 20 20 19 18 18 17 17 17 16 16 15 15 15 15 14 14 13 14 13 13 13 13 12 12 12 12
22 23 22 22 21 21 20 19 19 18 18 17 17 16 16 16 16 16 15 14 14 14 14 13 13 13 13 12 12 12 12 12
21 22 22 22 21 20 20 19 19 18 18 17 17 16 16 16 16 16 15 14 14 14 14 13 13 13 13 12 12 11 11 11
20 22 22 21 21 21 20 19 19 18 18 17 17 16 16 16 16 15 15 15 15 14 13 13 13 13 12 12 12 11 11 11
20 21 22 21 21 21 20 20 19 19 18 17 17 17 16 16 17 16 15 14 14 14 13 13 13 12 12 11 10 10 10 9
20 21 21 21 21 21 20 19 19 19 18 18 17 17 17 16 16 16 15 15 14 13 13 12 11 11 11 10 9 10 9 8
19 21 21 21 20 20 20 20 19 19 18 18 17 17 16 16 15 14 14 13 12 12 12 11 11 9 9 8 8 9 9 8
20 20 19 20 20 20 19 18 18 18 18 18 17 17 17 16 16 14 13 12 11 10 9 9 8 8 8 7 6 6 7 7
19 19 18 18 19 19 18 18 18 18 18 17 16 16 16 16 15 13 12 10 9 8 8 7 6 5 5 4 4 6 6 6
20 18 18 18 18 17 16 16 16 16 17 16 15 15 14 13 12 11 9 8 8 7 6 5 4 4 4 5 6 6 6 5
16 16 17 17 17 16 15 14 14 15 15 14 13 13 11 10 9 8 7 6 6 5 4 4 3 5 5 5 5 5 5 5
15 16 17 16 15 14 13 13 13 14 14 13 12 10 10 9 8 7 7 6 5 4 4 4 4 5 5 5 5 5 4 4
15 14 15 15 14 13 12 12 13 13 12 11 9 9 8 8 7 6 6 5 5 4 5 5 5 5 5 4 4 4 3 3
13 13 13 13 13 12 12 12 12 12 11 9 8 8 8 7 6 6 6 5 4 5 5 5 4 4 4 3 3 3 3 3
12 12 12 12 12 11 12 11 11 12 10 9 8 8 7 7 6 5 5 5 5 5 4 4 4 3 3 3 2 2 2 1
12 12 11 11 11 10 11 10 10 10 10 8 6 5 5 5 5 5 5 5 5 4 4 3 3 3 2 2 1 0 -1 -1
12 11 11 11 10 10 9 8 8 7 6 5 4 4 4 3 3 3 4 5 4 3 3 3 2 2 1 0 -1 -2 -2 -3
11 10 10 10 10 8 7 7 6 6 4 4 3 3 3 3 3 4 4 4 3 2 2 1 1 -0 -1 -1 -2 -3 -3 -4
9 10 9 8 7 7 6 5 4 4 3 4 4 4 4 5 5 4 3 3 2 1 1 0 -1 -1 -2 -2 -3 -3 -4 -4

GFSFLT1_925_temp_012.txt.gz
Temp
23 22 21 21 21 20 20 19 19 19 18 18 17 17 17 16 16 16 15 15 15 14 14 13 13 13 13 12 12 12 12 11
19 21 21 21 20 20 20 20 19 19 18 17 17 17 16 16 16 16 15 15 15 14 14 13 13 13 13 12 12 12 11 11
18 19 21 21 21 21 20 20 20 19 18 18 18 17 17 17 16 16 15 15 15 15 14 14 13 13 12 12 12 11 11 11
18 19 21 21 21 21 21 21 20 20 19 18 18 17 16 16 16 16 16 15 14 14 14 14 13 13 13 12 12 11 10 10
19 20 19 20 21 21 20 20 20 19 18 18 17 17 16 17 17 16 16 16 15 14 14 13 13 12 12 11 10 9 9 8
17 18 21 21 21 21 21 20 20 19 18 18 17 16 17 17 17 16 16 15 15 14 13 12 12 11 10 9 9 8 7 7
17 20 20 20 20 19 19 19 19 18 18 18 17 17 16 15 16 15 15 14 14 14 12 11 10 9 9 8 7 6 5 6
16 18 17 18 18 18 17 17 17 17 16 16 16 16 16 15 15 14 13 11 11 10 9 8 7 5 5 5 5 6 6 6
17 16 16 17 17 16 16 16 15 15 15 16 16 15 15 15 15 14 12 11 9 7 6 6 5 4 4 3 3 4 4 5
14 15 16 15 15 14 14 14 14 14 14 14 14 14 14 14 13 11 9 8 6 5 5 4 4 3 4 3 4 5 5 5
13 14 15 15 15 14 14 14 13 12 13 13 13 13 13 12 10 8 7 6 5 5 5 4 3 3 4 4 5 5 5 5
12 13 14 14 14 14 13 12 11 11 12 12 12 10 10 9 8 7 7 6 6 6 4 5 5 5 5 5 4 4 4 4
11 12 13 12 12 12 11 11 11 11 11 11 10 9 8 7 7 6 6 6 6 5 4 4 5 5 4 4 4 3 3 3
10 11 12 12 12 11 11 10 10 10 11 10 9 7 7 7 6 6 5 5 5 5 5 5 4 4 4 3 3 3 2 2
11 10 10 11 10 10 10 9 9 9 9 7 6 6 6 6 5 5 5 5 5 5 5 4 4 3 3 2 2 1 1 0
10 9 10 10 10 9 9 8 7 8 8 7 5 5 4 4 4 4 3 4 4 4 4 3 3 2 1 1 0 -0 -1 -2
11 10 10 9 9 9 8 7 6 6 7 5 4 3 3 2 2 3 3 4 3 3 3 2 1 1 0 -1 -1 -2 -2 -3
10 9 9 9 8 7 7 5 4 4 4 3 3 3 2 3 3 3 3 3 3 2 1 1 0 -1 -1 -2 -2 -3 -3 -4
10 9 8 8 7 7 6 5 5 4 4 3 3 3 3 3 3 3 3 2 1 1 0 -1 -1 -2 -2 -3 -3 -4 -4 -4

GFSFLT1_925_temp_015.txt.gz
Temp
21 21 21 21 20 20 20 20 19 19 18 18 18 17 17 17 17 16 16 15 15 15 15 14 13 13 13 13 12 12 12 12
17 19 20 20 20 20 20 20 20 19 18 17 17 17 17 17 17 17 17 16 15 14 15 14 13 13 13 13 12 12 12 11
15 17 19 20 21 20 20 20 19 19 19 19 18 18 18 17 17 17 16 16 16 15 14 14 14 13 13 13 12 12 11 11
16 17 19 20 20 20 20 20 20 19 19 18 18 17 17 17 17 17 17 16 16 15 15 14 14 14 13 13 12 11 11 10
17 18 18 20 21 20 20 20 20 19 18 17 17 16 15 17 18 17 17 16 16 15 15 14 14 13 13 12 11 10 10 8
16 18 20 21 20 20 20 19 18 17 17 16 16 15 16 15 15 15 15 15 14 15 15 14 12 12 11 10 9 8 7 7
16 17 18 19 18 17 17 17 17 17 16 15 15 14 15 14 14 14 14 13 13 13 13 11 11 10 8 6 5 5 5 4
14 14 15 16 16 16 16 15 15 15 15 15 15 14 14 13 14 14 13 12 11 10 9 8 7 5 4 3 3 3 3 3
14 13 13 14 14 15 15 15 14 14 13 13 13 13 13 13 13 13 12 9 8 6 5 4 3 3 4 4 4 4 3 2
11 13 13 14 14 15 14 14 13 12 11 11 12 12 12 13 12 12 10 7 5 4 4 4 4 4 3 3 3 4 4 4
11 12 13 14 13 13 13 12 11 11 11 11 11 11 11 11 11 10 8 6 5 5 5 5 5 4 3 3 4 4 4 4
11 11 13 13 12 12 11 11 10 10 10 10 10 10 10 9 8 8 6 5 6 6 6 5 4 4 4 4 4 4 3 3
10 11 12 12 11 11 10 10 9 10 9 9 10 9 7 6 6 6 6 6 6 6 5 5 5 4 4 4 3 3 3 2
11 11 11 11 11 10 10 9 9 8 8 8 8 8 6 6 5 5 5 5 5 5 5 4 4 4 3 3 2 2 2 1
11 10 10 10 10 10 9 9 8 7 7 6 7 6 5 5 4 4 3 3 3 3 4 3 3 3 2 2 1 1 1 -0
10 10 9 10 9 9 9 8 7 6 5 5 4 4 3 3 2 2 2 1 3 3 3 3 2 2 1 1 0 -1 -1 -2
9 10 10 9 9 9 8 7 6 5 4 4 3 3 2 1 1 2 2 2 2 2 2 1 1 0 -0 -1 -1 -2 -3 -3
10 9 9 9 8 7 6 6 5 5 4 4 4 3 2 2 2 2 2 2 2 1 1 -0 -1 -1 -2 -2 -3 -3 -3 -4
9 10 8 7 6 6 6 5 5 4 4 4 3 3 3 3 3 2 2 1 0 -0 -1 -2 -2 -3 -3 -3 -4 -4 -5 -5

GFSFLT1_925_temp_018.txt.gz
Temp
20 21 20 20 20 20 19 19 19 19 19 18 18 17 17 17 17 17 17 16 15 15 15 15 14 14 13 13 13 13 12 12
16 18 19 19 20 20 20 20 20 19 19 18 18 18 18 18 18 18 17 17 16 15 15 14 14 14 14 14 13 12 12 12
15 16 18 19 20 20 20 20 20 20 19 18 17 17 17 17 18 18 17 17 17 16 15 14 14 14 14 13 13 12 12 11
16 16 18 19 20 20 21 20 19 17 17 16 16 16 16 16 17 17 17 16 15 16 16 15 15 14 13 14 13 12 11 11
16 17 17 19 19 18 18 17 17 16 15 15 14 14 13 15 14 15 15 15 15 14 13 13 14 12 12 12 12 11 10 9
14 16 16 16 16 16 16 15 14 14 14 14 14 13 13 12 13 13 13 14 13 13 12 11 11 10 10 10 9 9 8 8
14 15 15 15 15 15 15 15 15 15 15 14 12 12 12 12 12 12 12 12 12 12 11 10 9 8 8 7 7 6 5 5
11 10 12 13 14 15 15 14 14 13 13 12 12 12 11 11 12 12 11 11 11 10 9 7 6 5 4 4 4 3 3 3
9 10 12 13 13 14 13 13 12 12 12 11 11 11 10 11 11 10 10 10 8 6 5 4 4 3 3 3 2 3 2 2
10 11 13 14 14 13 12 12 11 11 11 10 10 10 10 10 11 11 9 8 6 4 4 4 4 4 4 3 2 1 0 0
11 12 13 13 12 12 11 11 10 10 10 10 9 9 9 9 10 9 7 6 4 4 5 5 5 5 4 3 2 2 1 2
10 11 12 12 12 11 11 10 10 10 9 9 8 8 8 8 7 6 5 4 5 5 5 4 5 5 4 3 3 3 3 3
10 11 11 11 12 11 11 10 10 9 8 8 7 7 6 5 5 4 4 4 4 4 3 4 4 3 3 3 3 3 2 2
10 11 11 11 11 11 10 10 9 8 7 7 6 5 5 4 4 3 3 3 3 1 1 2 2 3 3 3 2 2 1 1
11 9 10 10 10 10 9 9 8 7 6 6 5 4 3 2 1 1 1 1 1 1 2 2 2 2 2 1 1 0 -0 -1
9 9 10 10 9 9 8 7 6 6 5 5 4 3 2 1 1 1 1 1 2 1 2 2 1 1 0 -0 -1 -1 -1 -2
9 10 10 10 8 7 6 6 6 5 5 4 3 3 2 2 2 2 1 1 1 0 1 1 0 -0 -1 -1 -2 -3 -3 -3
9 9 8 6 5 5 5 5 5 4 4 4 3 2 2 2 2 2 1 1 1 0 -0 -1 -1 -2 -3 -3 -4 -4 -4 -5
7 6 5 4 3 3 4 4 4 3 3 2 2 3 3 3 2 1 1 0 -0 -1 -2 -2 -3 -3 -3 -4 -5 -5 -5 -5

GFSFLT1_925_temp_021.txt.gz
Temp
19 20 20 20 20 19 19 19 20 19 18 18 18 18 18 18 18 18 17 16 16 16 16 16 15 14 14 14 13 12 12 12
17 19 19 19 19 19 20 20 20 18 17 16 17 17 17 17 17 17 16 16 16 15 14 14 14 13 14 14 13 11 11 11
17 17 18 18 19 19 18 16 16 16 15 15 15 15 16 16 16 16 16 15 15 14 14 14 13 11 12 12 11 11 10 10
18 17 15 15 15 15 15 15 15 15 14 14 15 15 14 14 14 14 15 14 14 14 13 12 12 11 10 11 10 10 12 11
17 16 15 13 14 15 15 14 14 14 14 14 13 12 12 12 11 11 12 13 13 13 13 12 11 10 9 9 10 9 10 11
16 15 13 12 14 13 14 14 14 14 13 13 11 10 10 10 10 10 10 11 12 12 12 12 11 9 8 8 8 7 8 8
14 13 13 13 14 14 14 14 14 12 12 11 11 11 10 10 10 10 10 10 10 11 11 10 9 8 7 5 5 5 5 6
14 14 14 13 13 13 12 13 11 11 12 13 12 11 10 9 9 9 9 8 8 8 8 7 5 4 3 4 3 3 3 3
14 13 13 13 12 12 11 11 12 13 12 11 11 10 9 8 8 8 7 6 6 6 5 4 3 4 3 3 3 2 2 1
14 14 13 12 12 11 12 12 12 11 11 10 10 9 9 7 7 7 6 5 5 3 3 4 5 5 4 4 3 2 0 0
15 14 13 12 12 11 11 11 10 10 9 9 8 7 6 6 6 5 4 4 3 4 4 3 3 3 2 2 2 1 1 1
14 13 12 11 11 11 10 9 9 8 7 7 7 6 5 5 4 4 3 2 3 3 3 3 2 1 1 2 3 2 2 2
13 12 11 11 11 11 10 9 9 8 8 7 6 6 5 5 3 3 2 2 2 1 1 0 0 1 1 2 2 1 1 1
13 12 12 11 11 10 9 8 7 6 6 5 5 4 4 2 2 1 1 1 1 1 0 1 2 1 2 2 1 1 1 1
12 12 11 11 10 9 7 7 6 6 5 5 4 3 2 2 1 1 1 1 1 1 1 1 1 1 0 0 -0 -0 -1 -1
11 11 10 9 8 7 6 5 5 5 4 4 3 2 2 2 1 1 1 1 1 1 1 0 0 0 -1 -2 -1 -2 -2 -2
10 9 8 7 6 5 4 4 4 4 4 3 3 2 2 2 1 2 1 1 1 0 -0 -1 -1 -2 -2 -2 -3 -3 -3 -3
8 8 6 5 4 3 3 3 3 3 3 3 3 2 2 2 1 1 1 0 -1 -1 -1 -2 -2 -3 -3 -4 -4 -4 -4 -4
7 6 5 4 3 3 2 3 3 3 3 2 2 1 1 1 1 0 -1 -1 -2 -2 -2 -3 -3 -3 -4 -5 -5 -4 -4 -5

GFSFLT1_925_temp_024.txt.gz
Temp
24 23 23 22 22 21 20 20 19 18 18 17 18 18 18 17 18 17 16 16 15 15 15 15 15 15 15 16 15 15 15 15
22 20 20 20 19 19 19 19 18 17 18 18 19 19 18 18 17 16 15 15 14 14 15 15 15 15 15 15 15 15 15 15
22 20 19 18 18 17 18 17 17 17 17 16 16 16 16 16 16 16 15 14 14 14 14 14 14 14 14 14 14 14 14 14
22 20 18 18 17 17 17 16 16 15 15 16 16 17 17 17 16 15 14 13 13 13 13 13 13 13 13 13 13 13 14 14
21 20 18 17 16 16 16 16 16 15 14 15 15 15 15 14 14 14 13 13 12 12 12 12 12 12 12 12 13 12 13 13
20 18 17 16 15 15 15 16 15 14 14 13 14 14 14 14 13 13 12 13 12 12 11 10 10 11 11 10 10 10 11 11
18 18 18 17 16 15 15 15 15 13 13 12 12 11 12 12 12 12 12 12 12 12 11 9 9 8 8 8 8 8 8 8
19 18 18 17 16 15 15 15 15 14 13 13 12 12 12 12 11 11 10 10 10 10 8 8 8 7 6 6 5 4 3 3
19 18 17 17 15 15 14 14 14 14 13 13 12 11 11 11 10 9 9 9 9 8 7 6 6 6 5 4 4 3 2 1
19 18 17 16 16 15 14 14 14 14 13 12 11 11 10 9 9 8 8 7 7 6 6 6 5 4 4 3 3 2 1 2
18 17 16 15 15 15 13 13 13 12 12 11 10 9 9 8 7 7 7 6 6 5 5 4 3 2 2 2 2 2 2 2
17 16 15 14 14 14 13 12 12 11 11 10 9 9 8 7 7 6 6 5 4 3 2 1 1 1 1 1 1 2 2 3
17 16 15 15 14 13 12 11 10 10 9 9 8 8 7 7 6 5 5 4 2 1 1 1 2 2 2 2 3 3 3 3
17 16 15 14 13 12 11 10 10 9 9 8 8 7 6 6 5 3 2 2 2 2 3 3 3 3 3 3 3 2 2 2
16 15 14 13 11 10 10 9 8 7 7 7 7 6 5 4 3 3 3 4 4 3 3 2 2 2 2 2 1 1 1 1
14 13 13 11 10 9 8 7 7 7 7 7 6 5 3 2 2 2 3 3 3 3 2 2 2 2 2 -1 -1 -0 0 1
12 11 11 10 9 8 7 7 6 6 6 6 5 4 3 3 3 3 3 3 3 2 2 2 1 1 -1 -2 -3 -2 -1 -1
11 11 10 9 8 7 7 6 6 6 6 5 5 4 4 4 3 3 3 2 2 2 1 1 0 0 -2 -3 -4 -3 -2 -1
11 10 9 8 7 7 6 6 6 5 5 5 4 4 3 3 3 2 2 2 1 1 1 -0 -0 -1 -3 -5 -5 -4 -2 -2

GFSFLT1_925_temp_027.txt.gz
Temp
28 26 26 25 24 23 23 23 22 21 21 20 20 20 20 20 20 19 18 17 17 16 16 16 16 17 17 17 17 17 17 17
24 23 23 23 22 22 22 22 20 20 21 21 21 21 20 20 19 18 17 17 16 16 16 16 16 16 16 16 16 16 16 16
23 22 21 21 20 20 20 20 19 19 20 19 18 18 18 18 18 17 17 16 15 15 15 15 15 15 15 15 15 15 15 15
24 22 20 20 19 19 19 18 18 17 18 19 18 19 19 19 18 17 16 15 14 14 14 14 13 13 14 14 14 14 15 15
23 21 20 19 18 18 18 18 18 17 16 17 17 17 17 17 16 15 15 14 14 14 14 13 13 12 12 12 13 13 13 14
22 21 20 19 18 17 17 18 17 16 16 15 15 15 15 15 15 15 14 14 13 13 13 12 12 11 11 11 11 11 11 11
22 21 20 20 18 17 17 17 18 17 16 15 15 14 14 14 14 13 13 12 12 12 12 11 10 10 10 10 8 7 6 7
22 21 20 19 18 18 17 17 17 17 16 15 15 14 13 14 13 13 11 11 11 11 10 9 9 9 7 6 6 5 4 3
21 21 20 19 19 18 17 17 17 16 16 15 14 13 13 12 12 11 10 10 9 9 9 7 6 5 4 4 4 3 2 2
21 20 19 18 18 17 17 16 15 15 14 14 13 12 12 11 11 10 9 9 8 8 5 4 4 4 3 3 2 3 3 3
20 19 19 17 17 16 16 15 15 14 13 12 12 11 11 11 10 9 8 8 5 4 3 3 3 3 3 2 2 2 1 1
20 19 18 17 17 16 15 14 13 13 12 12 11 11 10 10 9 8 7 6 5 4 3 2 2 3 3 3 3 3 3 3
19 18 18 17 16 15 14 13 13 12 11 11 10 10 10 9 8 6 5 5 5 4 3 3 4 4 4 4 4 4 4 4
19 18 17 16 15 14 13 12 11 10 10 10 9 9 8 6 6 5 5 4 4 4 3 3 4 4 4 4 4 4 4 4
18 17 16 15 14 13 12 11 10 9 9 9 9 7 6 5 4 3 3 3 3 3 4 4 5 4 4 4 4 2 2 2
17 16 15 14 13 11 11 10 9 9 8 9 8 5 5 4 4 4 4 4 5 5 4 4 4 4 3 1 1 -0 0 1
14 13 12 12 12 11 10 10 9 9 8 8 7 6 5 5 5 5 5 4 4 4 4 3 3 3 1 -0 -2 -2 -1 -1
12 10 11 11 11 10 10 9 9 9 8 8 6 6 5 5 4 4 4 4 4 3 3 3 2 2 -1 -2 -3 -3 -3 -2
9 9 11 11 10 10 10 9 9 9 8 7 6 5 4 4 4 4 4 3 3 3 2 2 1 1 -1 -3 -4 -4 -3 -2

GFSFLT1_925_temp_030.txt.gz
Temp
27 25 25 24 23 23 23 23 23 22 21 21 20 21 20 20 20 19 18 17 17 16 16 16 16 16 16 16 16 16 16 16
23 22 22 22 22 22 21 20 19 20 21 20 20 19 19 19 19 18 17 17 16 15 15 15 15 15 15 15 15 15 15 15
22 21 20 21 21 21 20 19 19 19 19 19 19 18 19 18 18 18 17 17 16 15 15 14 14 14 13 13 13 14 14 14
22 21 20 19 19 20 19 19 18 17 18 18 18 18 18 18 17 17 16 15 15 14 14 14 13 13 12 12 12 12 12 12
22 21 19 19 18 19 19 18 18 17 16 16 16 16 16 15 16 15 15 14 14 13 13 12 12 11 11 11 11 10 10 10
22 21 19 18 18 18 18 18 18 17 16 16 15 15 14 14 14 14 13 13 12 12 11 11 11 10 10 10 9 8 7 7
22 21 21 19 18 18 18 18 18 18 17 16 15 15 14 14 14 13 12 11 11 10 10 10 9 8 7 7 7 6 5 5
22 21 21 20 19 18 18 17 17 17 16 16 15 14 13 13 12 12 11 10 10 9 9 8 7 7 6 6 6 5 4 4
22 21 20 19 19 18 17 17 16 16 15 15 13 13 12 12 12 10 10 9 9 7 7 6 6 5 5 5 4 4 3 3
21 21 20 19 18 17 17 16 16 15 14 13 13 12 12 12 11 10 9 9 7 6 5 4 4 4 4 4 3 2 2 2
21 20 19 19 18 17 16 15 15 14 13 12 12 11 11 10 10 9 8 7 6 5 5 4 3 3 3 3 3 3 3 3
21 20 19 18 17 16 16 14 14 13 12 11 11 10 10 10 9 7 6 6 6 5 5 4 3 4 4 4 4 4 3 3
20 19 18 16 16 16 15 13 12 11 10 10 10 10 9 8 7 7 5 5 5 5 4 3 3 4 4 4 4 4 4 4
19 18 17 16 15 15 13 12 11 10 10 10 9 9 7 6 5 5 4 4 4 4 4 4 4 4 5 4 4 4 2 2
18 17 16 15 14 13 12 11 11 10 10 9 9 8 6 5 5 4 4 4 4 4 4 4 4 4 4 3 3 2 1 0
15 14 14 13 13 12 12 11 10 10 9 9 9 7 6 5 5 5 5 5 4 4 4 4 4 3 2 1 1 -1 -1 -1
13 13 12 11 11 12 11 11 10 9 9 9 9 7 6 6 5 5 5 4 4 4 4 3 3 3 1 -0 -1 -2 -2 -3
12 11 11 11 11 12 10 10 10 10 9 9 9 7 6 5 5 5 4 4 4 3 3 3 2 1 -1 -1 -3 -3 -4 -3
10 10 10 11 12 11 11 11 10 9 9 9 8 7 6 5 5 5 4 4 3 3 2 1 -0 -1 -1 -3 -3 -4 -4 -4

GFSFLT1_925_temp_033.txt.gz
Temp
20 21 21 21 21 21 20 19 19 19 20 20 20 19 19 19 18 18 18 17 17 16 16 15 15 15 14 14 14 14 13 14
19 19 20 20 20 19 19 19 18 19 19 19 19 19 19 19 18 18 17 17 16 15 15 14 14 14 13 13 13 12 12 12
18 18 19 19 19 19 18 19 18 18 18 18 18 18 18 18 16 16 16 15 14 14 13 13 13 12 12 12 11 11 11 10
17 17 18 19 19 19 18 18 18 18 17 17 18 18 17 16 15 14 14 14 13 12 12 12 11 11 11 10 10 10 9 8
17 17 17 18 18 18 18 18 18 17 17 16 16 15 15 14 14 14 13 13 12 11 10 10 10 10 10 9 8 8 8 6
16 17 18 18 17 17 18 18 17 17 16 16 15 15 14 14 13 13 12 11 11 10 10 10 9 8 7 7 7 6 6 6
18 18 18 18 18 18 17 17 17 16 15 15 14 14 13 13 12 11 11 10 9 9 9 8 7 7 7 6 6 5 5 4
16 17 17 17 17 17 17 16 16 15 15 14 13 12 12 12 11 10 10 9 8 8 7 7 6 6 5 5 5 5 4 4
16 18 18 18 17 17 17 16 16 14 13 13 12 12 11 11 10 10 9 9 8 7 7 6 5 4 4 4 4 3 3 2
16 17 18 18 18 17 16 15 14 13 12 12 11 11 10 10 10 9 8 7 7 6 5 4 4 4 3 3 3 3 3 3
17 17 17 17 16 16 15 14 13 12 11 11 10 10 10 9 8 8 7 6 6 5 5 4 5 4 4 3 3 3 3 3
16 16 16 16 16 15 14 13 12 11 11 10 10 9 9 8 7 7 6 6 5 5 5 4 4 4 4 4 4 4 4 4
15 16 16 15 15 14 12 12 11 11 10 10 10 9 8 8 7 6 5 5 5 4 5 4 4 4 4 4 4 3 3 2
13 13 13 13 13 12 12 12 11 10 10 9 9 9 8 7 6 5 5 5 4 4 4 4 4 4 4 3 3 2 1 1
12 12 12 11 11 12 12 11 11 10 10 9 9 9 7 6 5 5 5 4 4 4 4 4 3 3 3 2 1 0 -0 -1
11 10 10 10 11 11 11 11 10 10 10 9 9 9 7 6 5 5 5 4 4 4 4 3 3 2 1 0 -1 -2 -2 -3
10 10 10 10 10 11 11 11 11 10 10 9 9 9 7 6 5 5 4 4 4 4 3 2 2 1 -0 -1 -2 -3 -3 -4
9 8 9 10 10 11 11 11 10 10 8 9 8 7 6 5 5 4 4 4 3 3 2 1 1 -0 -1 -2 -3 -3 -4 -4
8 9 9 10 11 10 10 9 9 9 9 8 7 6 5 4 2 4 4 3 3 3 1 0 -0 -1 -2 -2 -3 -3 -4 -4

GFSFLT1_925_temp_036.txt.gz
Temp
16 17 18 19 19 18 17 17 17 17 17 18 18 18 19 18 18 17 17 17 16 15 15 14 14 14 14 13 12 12 12 11
16 17 18 18 18 17 16 16 16 16 16 17 17 17 16 16 15 15 15 14 14 14 13 13 13 12 11 11 11 11 11 10
15 16 17 17 17 17 17 17 17 17 17 16 16 16 15 15 14 14 14 14 13 12 12 12 11 11 11 10 10 9 9 8
15 15 16 17 17 17 17 17 17 17 17 17 17 17 16 15 13 13 12 12 12 12 11 11 10 10 10 9 8 8 7 8
15 15 17 17 17 17 17 17 16 16 16 15 15 15 14 14 13 12 12 11 11 11 10 10 9 8 8 7 7 7 6 6
14 15 17 18 18 18 17 17 16 16 15 15 14 14 13 13 12 12 12 11 11 10 10 9 8 7 7 6 6 5 5 5
15 17 17 17 17 17 16 16 16 15 15 15 14 13 12 12 11 11 10 10 9 9 8 7 7 6 5 4 4 4 3 3
14 15 15 16 16 16 17 16 15 14 14 13 12 12 11 11 11 10 10 9 8 7 6 6 6 5 4 4 4 3 3 3
14 15 16 16 16 17 16 15 13 13 12 12 11 11 11 10 10 9 8 7 6 6 6 5 5 4 4 4 3 3 3 3
15 15 15 15 15 15 15 14 12 12 11 11 10 10 10 9 8 8 7 6 6 5 5 4 4 4 4 4 3 3 3 3
15 15 15 14 14 14 13 13 13 12 11 10 10 9 9 9 8 7 6 6 5 5 5 5 4 4 4 4 3 3 3 3
13 13 13 13 13 13 13 12 11 11 11 10 10 9 9 9 8 7 6 6 6 5 4 4 4 4 4 3 3 3 3 2
12 12 12 12 12 12 11 11 11 11 10 10 10 9 9 8 8 7 6 6 5 4 4 4 4 4 3 3 3 1 1 0
11 11 11 11 11 11 11 11 10 10 10 10 10 9 9 8 7 6 6 5 5 4 4 4 3 3 3 2 1 0 -0 -1
10 9 9 10 10 10 10 11 10 10 10 10 9 9 9 7 6 6 5 5 4 4 4 3 3 3 2 1 0 -1 -1 -2
9 8 9 9 10 10 11 11 11 10 10 9 9 9 8 7 6 5 5 4 4 4 3 3 3 2 1 -0 -1 -2 -2 -3
8 8 8 9 10 9 9 9 9 9 9 9 8 8 7 7 6 5 4 3 1 3 3 3 2 0 -1 -1 -2 -3 -3 -4
7 7 8 8 8 9 9 9 8 8 8 7 7 6 6 5 4 3 1 0 0 3 2 1 -0 -1 -2 -3 -3 -3 -4 -4
7 8 8 9 9 8 8 8 8 7 6 5 5 4 4 4 2 0 -0 -0 -0 1 1 -1 -1 -2 -3 -3 -4 -4 -5 -5

GFSFLT1_925_temp_042.txt.gz
Temp
12 13 15 16 16 16 15 15 16 15 14 13 14 15 15 16 16 15 15 15 15 14 14 13 12 12 11 11 10 10 9 8
12 13 13 14 14 15 15 15 15 15 13 14 15 15 15 16 16 15 15 14 14 13 13 12 11 11 10 9 9 8 8 7
12 14 15 15 15 15 15 16 16 15 16 15 16 16 15 15 15 15 14 13 13 12 11 11 10 10 9 8 7 7 6 6
12 13 13 14 15 16 16 16 17 17 17 16 15 15 15 15 14 13 12 12 11 10 10 9 9 8 8 7 7 6 5 5
12 12 14 16 16 16 17 17 17 17 16 16 16 15 15 14 12 11 11 10 10 9 9 8 8 7 7 7 6 6 4 4
12 14 14 16 16 16 16 16 16 16 15 15 15 14 13 11 11 10 10 9 9 8 8 7 7 6 6 5 5 4 4 3
14 14 14 15 14 15 15 15 14 14 14 13 13 12 12 11 11 10 9 9 8 8 7 7 6 5 5 4 4 4 3 3
12 13 13 13 14 14 13 14 13 12 12 12 11 11 11 11 10 10 10 9 9 8 7 7 6 5 5 4 4 4 3 3
12 14 14 13 13 13 14 12 12 11 11 11 11 11 11 10 10 9 9 8 8 8 7 7 6 5 4 4 3 3 3 3
12 12 13 13 13 13 12 12 11 11 11 11 11 10 10 10 9 9 8 8 8 7 6 5 5 4 4 3 3 3 3 3
10 11 11 11 11 11 11 11 11 11 10 10 10 10 10 9 9 9 8 8 7 6 5 5 4 3 3 3 3 3 2 2
8 9 10 11 11 12 11 10 10 11 11 10 10 9 9 8 8 8 8 7 6 5 5 4 4 3 3 3 3 2 2 2
8 9 10 10 10 10 10 10 10 10 9 9 9 8 8 7 7 7 6 6 5 4 4 4 3 3 3 3 2 2 1 -0
8 8 9 9 9 9 9 9 9 9 9 8 9 8 8 7 7 7 6 6 5 4 4 3 2 2 2 2 1 0 -1 -1
8 7 8 8 8 9 9 9 9 8 8 8 7 7 6 6 6 6 6 6 4 3 2 2 1 -0 0 0 -1 -1 -2 -2
8 7 7 8 8 8 8 8 8 7 7 7 6 6 6 5 5 5 4 3 2 1 1 0 -1 -0 -0 -1 -2 -2 -2 -3
8 7 7 7 7 7 7 7 7 7 7 6 5 5 5 4 4 3 2 2 1 1 -1 -1 -1 -1 -1 -2 -3 -3 -4 -4
7 6 6 7 7 7 7 6 6 6 6 6 5 4 4 3 2 2 1 -0 -0 -0 -1 -1 -1 -2 -2 -3 -3 -4 -5 -5
6 6 6 6 6 6 6 6 5 5 5 5 4 3 3 2 2 1 0 0 0 -1 -1 -2 -2 -2 -3 -3 -4 -5 -6 -6

GFSFLT1_925_temp_045.txt.gz
Temp
13 13 14 15 14 13 14 14 14 15 16 15 16 14 15 15 15 15 15 14 14 13 13 12 11 11 10 10 9 9 8 8
13 13 13 13 13 14 15 16 14 15 15 14 13 14 14 15 15 15 15 14 13 12 12 11 10 10 9 8 8 7 8 7
13 13 13 14 14 15 14 14 14 15 15 13 15 14 14 15 14 14 13 12 12 11 11 10 10 8 8 7 6 7 7 6
15 14 13 14 14 15 15 16 16 16 15 15 15 14 13 12 12 13 12 11 11 11 10 9 9 8 7 7 6 5 6 6
14 14 14 14 15 16 16 16 15 15 15 15 15 14 14 13 12 11 11 11 10 9 9 9 8 8 7 6 5 5 4 6
15 15 15 13 14 15 15 15 15 14 14 14 14 13 12 11 11 10 10 10 9 9 8 8 8 7 6 6 5 4 4 4
15 14 14 13 14 14 14 14 14 14 14 14 13 12 11 10 10 9 9 9 9 9 8 8 7 7 5 4 4 3 3 3
16 15 14 13 13 13 13 14 13 12 12 12 12 11 11 11 10 9 9 9 9 9 8 7 6 5 5 4 3 3 3 3
15 15 14 14 12 12 13 12 12 12 12 11 11 11 10 10 10 9 9 9 8 8 7 6 6 5 5 4 3 3 2 2
15 14 13 12 12 11 11 11 11 11 11 11 11 10 10 9 9 9 8 8 7 7 6 6 5 5 4 4 3 3 3 3
13 12 11 10 10 11 11 11 10 10 10 10 9 9 9 8 8 8 7 7 6 6 6 5 5 5 4 3 3 3 3 2
12 11 10 10 9 10 10 10 10 10 9 9 9 9 8 8 8 7 7 6 6 6 5 5 4 3 3 3 2 2 1 1
11 10 10 10 9 9 9 9 9 9 9 9 9 9 8 7 7 6 6 6 6 5 3 2 2 2 2 1 1 1 1 -0
10 10 10 9 8 8 8 8 8 9 8 8 8 8 7 6 6 5 5 4 4 4 2 1 1 1 1 -0 -0 0 -1 -1
10 10 9 9 8 7 8 8 8 8 8 8 7 6 6 5 5 4 4 3 2 2 1 1 0 -0 -1 -2 -1 -1 -2 -2
10 10 9 8 7 7 8 8 8 7 7 6 6 5 5 5 4 4 3 2 1 0 -0 -1 -1 -1 -1 -1 -2 -2 -2 -3
9 8 8 7 7 7 7 7 7 6 6 6 5 5 4 4 3 3 1 0 -0 0 0 -1 -1 -1 -2 -2 -2 -2 -3 -4
8 8 7 7 6 7 6 6 5 5 5 4 4 4 3 3 2 1 1 0 0 0 -1 -1 -2 -2 -2 -2 -3 -4 -4 -5
8 7 6 6 6 6 5 4 4 3 3 2 2 2 2 1 1 1 0 -0 -0 -0 -1 -2 -2 -3 -3 -3 -4 -5 -5 -5

GFSFLT1_925_temp_048.txt.gz
Temp
19 19 19 20 19 18 16 15 14 15 14 14 14 13 14 14 13 13 13 13 13 13 13 12 12 12 12 11 11 11 11 11
19 18 18 17 16 16 15 14 15 15 15 14 13 14 14 14 15 13 13 13 12 12 13 12 11 11 10 10 10 10 11 10
18 18 18 18 17 16 16 15 15 15 15 16 16 16 16 15 14 12 12 12 11 11 11 11 10 11 10 9 9 9 10 10
20 18 18 17 17 17 17 17 16 16 17 16 15 14 15 15 14 13 11 11 11 10 10 10 10 10 10 9 9 8 9 9
20 19 19 19 18 18 18 17 17 16 16 16 16 17 17 15 14 13 12 10 10 10 10 10 9 9 9 9 8 7 8 8
21 20 19 19 17 17 16 16 16 15 15 15 15 15 14 14 13 12 11 11 10 10 9 9 9 9 8 7 7 7 7 7
21 20 19 17 15 15 15 15 15 14 14 14 14 14 13 13 13 12 12 11 11 10 9 9 9 8 8 7 7 6 6 6
21 20 19 18 16 16 15 16 15 14 13 13 13 12 12 12 12 12 11 11 11 11 10 9 9 8 7 6 6 6 5 5
21 20 19 18 16 16 16 15 14 13 13 12 12 12 12 12 11 11 11 10 10 9 8 8 7 7 6 6 5 5 5 5
20 19 18 18 17 15 15 14 13 12 11 11 11 10 10 10 10 9 9 9 8 8 7 7 7 6 6 5 5 5 5 4
20 19 17 16 15 14 13 13 11 11 10 9 10 10 10 9 9 9 8 8 8 7 7 7 7 6 6 5 5 5 4 4
18 17 15 14 14 13 12 12 11 10 9 9 10 10 9 9 8 8 7 7 7 7 7 6 6 6 5 5 4 4 3 3
17 15 14 14 13 12 11 11 9 9 9 10 10 9 9 8 8 7 7 6 6 6 5 5 5 5 4 3 3 2 2 2
16 15 14 13 11 11 9 9 9 10 10 10 9 9 8 8 7 7 6 5 5 5 4 4 4 3 3 2 1 -0 0 1
16 15 14 12 11 11 10 9 10 9 9 9 9 8 7 7 6 6 5 5 4 4 4 3 1 0 -0 -1 -0 1 1 1
15 15 13 12 11 10 10 10 9 9 9 8 8 7 7 6 5 5 4 4 4 3 2 1 0 0 1 1 1 1 1 1
15 14 13 12 10 11 9 9 8 8 8 7 7 6 6 5 5 4 4 4 4 3 2 2 2 1 -0 -1 -1 0 0 -0
14 13 11 11 10 9 10 8 7 7 6 6 6 5 5 5 4 4 4 3 3 2 2 2 1 1 -1 -2 -2 -1 -1 -1
13 11 10 10 9 9 8 7 7 6 5 5 5 4 4 4 4 4 3 3 2 1 0 0 1 0 -2 -2 -3 -2 -2 -2

GFSFLT1_925_temp_051.txt.gz
Temp
23 23 23 24 24 22 19 16 14 14 14 15 15 16 16 14 13 14 14 14 14 15 14 13 14 14 13 12 12 12 12 13
23 22 22 23 22 21 16 14 15 14 15 15 15 15 14 14 15 15 15 14 14 14 15 14 13 13 12 12 11 12 12 12
22 22 21 21 20 19 16 16 16 17 18 18 18 17 17 17 16 14 14 13 13 14 13 13 13 12 12 12 11 11 11 11
23 22 20 18 17 18 18 18 18 19 19 18 18 18 17 17 16 15 14 13 13 13 12 12 12 11 12 11 10 10 10 10
23 22 21 20 20 20 20 20 19 19 19 19 18 19 18 17 16 15 15 13 13 12 12 11 11 11 10 10 10 9 9 9
23 22 22 21 20 20 20 19 19 18 18 18 18 18 17 16 15 14 14 13 13 12 11 11 11 10 10 10 9 9 9 8
24 22 21 20 19 18 18 18 18 17 17 16 17 16 16 16 15 14 14 14 13 13 12 11 11 10 10 10 8 8 8 7
24 23 22 20 18 18 18 18 17 16 16 15 15 14 14 14 14 14 13 13 13 12 11 11 10 10 9 9 8 7 7 6
24 23 22 20 19 18 18 18 17 16 15 14 14 13 14 13 13 12 12 12 11 11 10 9 9 9 9 8 7 6 6 5
24 23 21 20 19 18 18 18 17 15 14 13 12 12 12 12 12 11 11 10 10 10 9 9 9 8 8 8 7 6 6 6
23 22 21 20 19 18 17 17 15 13 13 11 11 10 12 11 11 11 10 9 9 9 8 8 8 8 8 8 7 6 5 4
23 22 21 19 18 16 15 15 14 13 11 10 10 12 11 11 10 10 9 9 8 8 7 7 7 7 7 7 6 5 5 5
23 21 19 18 17 16 15 14 12 10 10 10 12 11 11 10 10 9 9 8 7 7 7 7 6 6 6 6 5 5 4 3
21 20 18 17 16 15 14 11 10 10 12 12 12 11 11 10 9 9 8 7 7 6 6 6 6 5 3 3 2 2 2 2
20 19 18 17 15 14 12 11 11 12 12 12 11 10 10 9 8 8 7 7 6 6 6 5 3 2 2 2 2 1 1 2
20 19 18 16 14 13 13 12 12 11 11 11 10 9 9 8 8 7 6 6 6 6 6 4 3 2 2 2 2 2 2 2
20 19 17 16 15 13 12 12 11 10 10 10 9 8 8 8 7 7 6 6 6 6 4 3 3 2 1 1 0 1 1 2
19 18 16 15 14 13 12 11 10 9 9 9 8 7 7 7 7 6 6 6 5 4 3 2 2 2 -0 0 -1 -1 0 1
18 17 15 14 12 11 11 10 9 9 8 7 7 7 6 6 6 6 6 6 5 3 2 2 0 -0 -1 -1 -2 -2 0 0

GFSFLT1_925_temp_054.txt.gz
Temp
25 25 25 25 23 21 18 16 15 15 15 15 15 15 15 15 15 15 14 14 14 15 14 13 13 14 13 12 12 11 11 12
24 24 24 24 23 18 17 15 15 15 15 15 15 15 15 14 15 15 15 15 14 14 14 14 13 13 12 12 11 11 11 11
23 23 23 23 20 16 15 15 15 15 16 17 17 16 15 16 16 15 15 14 13 14 13 13 12 12 12 12 11 10 10 10
23 22 21 20 18 17 17 16 16 16 18 18 17 17 17 16 15 14 14 13 13 13 13 12 12 11 11 11 10 10 9 9
24 22 19 18 18 18 17 17 18 19 19 19 18 18 17 17 16 15 14 13 13 12 12 12 11 11 11 10 10 10 9 9
24 21 20 19 18 19 20 20 20 19 19 19 18 18 17 16 16 15 14 14 14 13 12 12 11 11 11 10 10 9 9 8
23 23 22 21 20 20 20 20 19 18 18 18 18 17 16 15 15 14 14 14 14 13 13 12 11 10 10 10 9 9 8 7
23 22 21 20 19 19 19 19 18 17 17 16 16 15 14 14 14 14 13 13 13 12 11 11 10 10 9 9 9 8 7 7
23 22 21 20 19 18 19 18 18 17 16 15 14 14 14 14 13 13 12 12 11 11 10 10 9 9 9 8 8 8 7 6
23 23 21 20 19 19 19 19 18 16 15 14 13 13 12 12 12 12 11 11 10 10 9 9 8 8 8 8 8 8 7 6
23 23 22 21 20 19 18 18 17 15 13 13 12 12 12 12 11 11 11 10 9 9 8 8 8 7 7 7 7 7 6 5
23 23 22 21 19 18 17 17 15 14 12 11 11 11 10 11 11 11 10 9 9 8 8 7 7 7 7 7 6 6 5 4
23 23 21 20 18 17 16 16 15 12 11 11 10 11 11 11 11 10 10 9 8 7 7 7 6 6 5 4 3 3 3 3
24 22 20 19 18 17 16 14 12 11 11 11 12 12 11 11 10 10 9 8 7 7 6 6 6 5 4 3 2 2 2 2
23 21 20 18 17 16 14 12 11 11 11 12 12 11 10 10 9 9 8 7 7 6 6 6 5 4 3 3 2 2 2 2
22 20 19 18 16 15 13 12 12 12 12 11 11 10 9 9 8 8 7 7 6 6 6 5 4 3 3 2 2 2 2 1
21 20 19 18 15 14 13 12 12 11 11 10 10 9 8 8 7 7 7 7 6 6 5 4 3 3 3 2 1 1 1 1
21 20 19 17 16 14 13 12 11 10 9 9 9 8 7 7 7 6 6 6 6 6 4 3 3 2 1 0 -2 0 -0 -0
20 19 17 16 14 13 12 11 10 9 9 8 8 7 7 6 6 6 6 6 5 5 4 3 2 2 1 -1 -2 -1 -1 -0

GFSFLT1_925_temp_060.txt.gz
Temp
18 18 19 18 19 19 18 18 18 17 17 16 16 15 15 15 16 15 15 14 14 14 14 13 13 13 12 11 11 10 10 10
18 18 19 18 18 18 18 18 17 17 16 15 15 15 15 15 15 14 14 14 14 14 13 13 12 12 12 11 10 10 10 9
20 20 18 17 17 17 17 17 17 17 17 17 16 15 14 15 14 14 14 14 14 14 13 13 12 12 11 11 10 10 10 9
18 18 16 15 15 16 16 17 17 17 17 16 16 15 14 14 14 14 14 14 13 13 13 12 12 11 11 11 10 10 9 9
17 16 15 14 14 15 15 16 17 17 16 16 15 15 14 14 14 14 14 13 13 13 13 12 12 11 11 10 10 9 9 8
16 15 15 14 15 16 16 16 16 16 16 15 15 15 15 15 14 14 13 13 13 12 12 11 11 10 10 9 9 9 8 8
17 16 15 15 16 16 16 16 15 16 16 16 16 16 15 14 14 13 13 12 13 11 11 11 10 10 9 9 8 8 8 7
16 15 15 14 15 16 16 15 16 16 16 16 16 15 15 14 14 13 13 11 11 10 9 9 9 9 8 8 8 7 7 7
16 16 15 15 16 16 16 16 16 16 16 15 14 14 14 14 13 12 11 11 10 10 8 9 9 8 8 7 7 7 6 6
16 16 16 16 17 17 17 16 15 16 15 15 14 14 14 12 12 11 10 10 10 9 9 9 9 8 7 7 6 6 6 5
16 16 16 16 18 17 17 17 16 16 15 14 14 13 12 12 11 11 10 10 10 9 9 9 8 7 7 6 6 5 5 4
16 16 16 18 18 18 17 17 16 14 14 13 13 12 11 10 10 10 10 10 9 9 8 8 7 7 6 6 5 5 4 4
17 16 16 16 17 17 16 15 14 13 12 12 12 11 9 9 10 10 10 9 8 8 8 7 7 6 6 5 5 4 4 3
16 16 16 16 15 14 13 11 12 12 12 11 10 9 10 10 10 9 8 8 8 7 7 7 6 6 6 4 4 4 3 2
16 16 16 15 12 11 11 11 12 12 11 10 10 10 10 9 8 8 8 7 7 7 7 6 6 6 4 4 3 3 2 2
15 14 13 11 11 11 11 11 11 11 10 10 9 9 9 8 8 8 7 7 6 6 6 6 6 4 4 3 3 2 2 2
14 13 12 11 9 9 10 11 10 10 10 9 8 8 8 8 7 7 7 6 5 5 5 5 4 4 3 3 2 2 1 0
14 13 12 11 10 9 10 10 10 9 8 8 8 7 7 7 7 6 5 5 5 4 4 4 3 3 3 2 1 1 0 -1
12 12 11 11 10 10 9 9 9 8 8 7 7 7 7 6 5 5 5 5 4 4 4 3 3 2 2 1 1 -0 -1 -1

GFSFLT1_925_temp_063.txt.gz
Temp
17 16 17 17 17 17 18 17 17 17 16 16 15 15 16 16 16 15 15 15 14 14 14 14 14 13 13 12 11 10 10 9
17 17 17 17 17 17 17 17 16 16 15 15 15 15 15 15 15 15 15 14 14 14 14 13 13 13 12 11 10 10 9 9
17 17 17 17 17 17 16 16 16 16 16 15 15 15 15 15 14 14 14 14 14 14 14 13 12 12 11 11 10 10 9 9
17 17 17 17 17 17 17 16 16 16 16 15 15 14 14 13 13 14 14 14 14 14 13 13 12 11 11 10 10 9 9 8
18 18 15 16 17 17 17 16 16 16 15 14 15 15 13 13 14 14 13 13 14 13 12 12 11 10 10 9 9 9 8 8
18 17 16 15 15 16 16 15 15 15 15 15 15 15 15 14 14 13 13 12 12 12 11 10 10 10 9 9 9 8 8 7
16 17 16 15 15 15 15 14 15 15 15 15 15 15 14 14 13 13 12 11 11 11 10 10 10 9 9 8 8 7 7 7
15 14 14 14 14 13 14 15 15 15 15 15 15 15 15 14 13 12 11 11 10 10 10 10 8 9 8 8 8 7 6 6
15 15 14 14 14 13 14 14 15 15 15 15 15 15 14 14 13 12 11 11 10 11 10 9 9 8 8 7 7 6 6 6
15 14 14 14 13 14 15 15 15 15 15 15 14 15 14 12 11 11 10 9 9 9 9 8 8 8 7 7 6 6 5 5
15 14 14 14 15 15 15 15 16 15 15 15 14 14 13 12 11 10 9 8 8 8 8 8 8 7 7 6 6 5 5 5
15 15 15 15 15 16 15 15 15 15 15 14 13 12 11 10 9 9 8 8 8 8 8 8 8 7 6 6 5 5 5 4
15 15 15 14 15 14 14 14 14 14 13 13 12 11 10 10 10 8 9 9 8 8 8 8 7 7 6 6 5 5 4 3
14 14 14 14 14 13 13 12 11 10 11 10 9 10 10 9 9 9 9 8 8 8 7 7 7 6 6 6 5 4 3 3
15 14 14 13 11 11 10 10 11 11 11 10 10 9 9 9 9 8 8 8 7 7 6 6 6 6 5 5 4 3 3 2
14 12 11 10 10 10 10 11 11 11 11 10 9 9 9 8 8 8 8 7 6 6 5 5 5 5 4 4 3 3 2 2
13 12 10 9 9 9 9 9 10 10 9 9 8 8 8 7 8 7 6 6 6 5 5 5 4 4 4 3 3 2 2 1
12 11 10 9 9 9 9 9 9 9 8 8 7 7 8 7 6 6 6 5 5 5 4 4 4 3 3 2 2 1 1 0
10 10 9 8 9 8 9 8 8 8 7 7 7 7 7 6 5 5 5 5 4 4 4 3 3 3 3 2 2 1 0 -0

GFSFLT1_925_temp_069.txt.gz
Temp
17 16 16 15 15 15 15 16 15 16 15 15 15 15 14 14 15 14 15 15 15 14 14 14 13 13 13 12 12 11 10 10
17 16 16 15 15 15 16 16 16 16 15 14 13 14 13 14 14 14 15 15 14 14 14 14 13 13 12 12 12 11 9 9
17 16 16 16 16 16 16 16 16 15 15 15 14 14 13 14 13 14 14 14 14 14 14 13 13 12 12 12 11 9 8 9
18 17 16 15 16 16 16 15 16 15 15 15 14 13 13 12 13 13 13 14 14 13 13 13 12 12 12 11 10 9 9 8
19 18 17 16 16 15 15 15 15 15 15 15 15 13 12 12 13 13 13 13 13 13 12 12 12 11 11 10 9 9 9 9
18 18 17 16 15 16 15 15 15 15 15 14 14 13 13 13 13 13 13 12 12 12 12 12 11 11 10 9 9 8 8 8
20 18 17 16 15 15 14 14 14 14 14 14 13 14 13 13 12 12 12 11 12 12 12 11 10 10 9 9 8 8 7 7
19 18 17 16 14 14 14 13 13 13 14 14 12 13 13 13 13 12 11 11 11 11 10 10 9 9 8 8 8 8 7 6
19 19 17 16 14 14 14 14 14 13 13 12 12 14 14 13 13 13 13 12 10 10 10 10 10 9 8 8 8 7 7 6
19 18 17 16 15 14 15 14 14 12 12 12 12 13 13 13 13 12 11 10 10 9 9 9 8 8 7 8 7 7 6 5
19 18 17 16 15 15 15 14 14 12 12 12 13 14 13 12 11 10 9 10 9 9 9 8 6 7 8 7 7 6 6 5
18 17 16 16 15 15 14 13 13 12 12 12 13 12 12 9 8 9 10 9 9 9 8 8 7 8 8 7 6 6 5 4
17 17 16 15 15 14 13 12 12 12 11 11 10 10 9 8 8 9 9 10 9 9 8 8 8 7 7 6 6 5 4 3
17 16 16 15 14 13 13 11 11 12 10 11 10 9 8 9 9 9 9 8 7 7 8 7 7 7 6 6 5 4 3 3
17 17 16 15 14 13 11 10 10 9 10 9 7 7 8 8 8 7 7 7 7 7 7 6 6 6 5 5 4 4 4 3
17 17 15 13 12 10 10 9 8 8 8 7 7 8 8 7 5 6 7 6 7 6 7 6 5 5 5 4 4 3 2 2
16 14 13 11 10 10 8 8 8 8 7 8 8 7 5 6 6 6 5 6 6 6 6 5 4 4 4 3 3 2 2 2
14 13 12 10 9 9 8 8 8 7 7 7 6 6 6 6 6 5 6 6 6 5 4 4 4 4 3 3 3 2 2 2
11 10 9 9 8 8 7 7 6 7 6 6 6 7 6 6 6 6 5 5 4 4 4 4 3 3 3 3 2 2 1 1

GFSFLT1_925_temp_072.txt.gz
Temp
17 18 18 18 17 17 17 16 16 15 15 15 15 15 15 14 14 14 13 14 14 14 14 14 14 14 13 13 13 13 13 13
19 19 18 18 17 18 17 17 16 16 15 16 16 15 14 14 13 13 13 14 14 14 14 13 14 14 13 13 13 12 13 12
21 19 18 18 18 17 17 17 16 16 17 17 17 16 14 14 15 12 12 13 13 14 14 13 13 13 12 12 12 13 12 11
21 20 19 19 18 18 18 18 18 17 17 17 16 16 14 14 14 12 12 14 13 14 13 13 13 13 13 12 12 12 13 11
23 22 21 20 19 19 19 19 18 17 17 17 16 17 16 15 14 12 12 13 13 13 13 13 13 13 12 12 11 11 11 12
25 23 22 21 20 19 19 19 18 17 16 16 16 17 16 13 12 12 12 12 13 13 12 12 12 12 11 10 10 10 11 11
25 24 23 22 20 19 17 17 17 16 15 15 16 16 14 12 12 11 12 13 13 12 12 12 11 10 10 9 9 8 9 9
26 25 23 22 20 18 17 17 18 17 15 15 14 14 14 13 12 12 14 13 13 12 12 11 10 10 10 9 7 8 9 9
26 26 24 22 20 18 18 18 18 17 16 14 14 14 14 14 13 13 14 14 13 12 11 11 10 10 9 7 7 8 8 8
26 26 25 22 20 19 18 19 19 17 15 14 14 14 13 13 13 13 14 14 13 11 10 8 10 9 8 7 8 8 8 7
25 25 24 23 21 20 19 19 19 17 16 15 13 14 13 12 13 14 13 12 11 9 8 9 9 8 7 7 8 8 7 7
24 24 23 22 21 20 19 19 20 18 16 14 13 14 12 12 12 12 11 10 9 8 10 9 8 7 8 8 8 8 7 7
25 24 23 22 21 20 20 19 19 18 16 15 13 13 11 10 9 9 9 8 8 9 8 7 8 9 8 8 8 8 7 7
24 23 22 21 21 20 20 18 17 16 14 12 10 10 9 8 7 7 7 7 7 7 7 8 8 8 8 8 7 7 7 6
25 24 23 21 20 19 18 17 15 13 11 10 9 8 7 7 7 7 7 7 6 7 6 7 7 8 7 7 7 6 6 6
24 24 23 21 19 17 16 13 11 10 10 8 8 6 7 8 7 7 7 6 7 6 7 8 7 7 7 6 6 6 5 5
23 22 21 19 17 15 13 11 11 10 10 8 7 6 7 6 5 5 6 6 5 7 7 7 7 6 6 4 4 4 5 5
20 20 19 17 15 13 11 10 10 9 8 6 5 6 6 5 5 6 6 6 7 7 6 6 6 6 5 4 4 3 4 4
17 17 15 15 14 13 12 11 10 8 8 6 6 5 6 6 6 6 6 7 6 6 6 6 5 5 4 4 3 2 3 4

GFSFLT1_925_temp_078.txt.gz
Temp
13 13 12 12 12 12 12 12 12 12 13 14 14 15 16 16 17 17 16 16 15 16 17 17 16 16 16 16 16 16 16 16
15 14 15 13 13 12 13 13 13 13 13 14 16 16 16 17 17 16 16 15 16 16 17 16 16 16 16 16 15 15 15 14
17 18 17 15 13 13 14 14 14 14 14 16 17 17 17 17 16 16 17 16 16 16 16 15 15 16 15 15 14 15 15 14
19 19 18 17 16 16 16 15 15 16 16 17 18 18 17 16 16 16 16 16 16 16 16 16 16 16 15 14 14 15 15 14
21 20 19 19 18 18 18 19 17 17 17 19 19 19 17 16 16 15 15 14 15 15 16 16 15 15 14 14 14 14 14 13
22 21 21 20 19 19 19 19 19 18 18 19 20 19 18 17 16 16 15 14 14 15 15 15 15 15 15 14 14 13 13 13
24 23 22 21 20 19 19 20 19 19 18 19 19 19 18 17 16 15 14 13 13 13 15 15 15 14 14 14 13 12 12 11
24 24 23 22 21 20 20 20 20 20 18 19 19 19 19 18 16 14 14 12 12 14 14 15 14 14 13 13 12 12 11 10
26 24 24 23 22 21 20 20 20 21 19 18 19 18 19 18 16 14 14 13 13 14 14 14 14 13 12 11 11 10 9 9
28 28 25 24 24 22 21 21 21 21 21 18 18 18 18 17 15 14 14 13 13 13 14 14 13 12 11 11 10 9 9 8
29 28 27 26 24 24 22 22 22 22 21 20 18 18 17 17 15 15 14 14 13 14 13 13 12 11 10 9 8 8 7 8
28 28 29 27 26 25 23 22 22 22 21 20 19 17 17 16 16 15 14 13 13 12 11 10 9 9 8 9 8 8 9 9
28 28 28 28 27 25 24 22 22 22 22 21 18 17 16 15 14 14 13 13 12 11 11 9 8 8 8 7 7 7 7 9
28 27 27 27 27 26 24 22 21 22 22 20 16 15 15 13 13 13 12 11 11 10 10 9 8 7 7 6 7 7 8 9
28 27 27 27 26 26 25 23 22 21 19 15 13 13 13 12 11 10 10 10 10 10 9 8 8 8 7 7 8 9 9 9
28 28 26 26 25 25 24 19 16 15 14 12 10 10 10 10 10 10 9 9 9 9 7 7 8 7 8 8 9 8 8 7
27 27 28 25 24 23 17 15 13 11 9 9 9 9 9 8 8 7 8 8 7 7 7 7 8 8 9 8 8 7 7 6
25 25 25 23 17 15 13 11 11 9 8 8 8 8 7 6 6 6 7 7 7 7 7 8 8 8 8 7 7 6 5 4
23 24 21 16 14 12 11 11 9 8 8 7 7 6 5 6 7 7 7 7 7 8 8 8 8 7 7 6 5 4 4 3

GFSFLT1_925_temp_081.txt.gz
Temp
12 12 12 12 12 13 12 12 13 13 13 13 14 14 14 15 16 17 19 17 16 16 16 16 16 16 16 16 16 16 16 16
13 12 12 11 11 11 11 11 12 13 12 13 15 15 15 17 18 17 17 17 16 16 16 15 16 16 16 16 16 15 15 15
13 13 12 12 11 11 11 12 12 13 14 14 14 16 16 16 16 16 16 16 16 16 16 16 16 16 16 16 15 15 15 14
14 14 13 12 12 12 12 12 12 12 13 13 13 14 15 16 16 16 16 16 16 17 16 16 16 16 16 15 15 15 14 14
16 16 14 13 12 13 13 13 13 14 14 14 14 15 15 15 16 16 16 16 16 17 16 16 16 15 16 15 15 14 14 13
17 17 16 14 14 13 14 14 14 14 15 15 15 16 16 17 16 16 16 16 16 16 16 15 16 15 15 15 14 14 14 13
18 18 17 17 15 15 15 15 15 15 15 16 16 17 17 17 16 16 15 15 15 15 15 15 15 15 15 14 14 14 13 13
18 18 18 18 17 17 16 17 17 16 17 17 17 18 18 17 16 16 15 14 15 15 14 15 15 15 15 14 13 13 13 12
19 19 19 19 18 18 17 18 18 18 18 18 18 18 18 18 17 16 15 15 15 15 14 14 14 14 14 13 13 12 12 11
21 20 20 20 19 18 18 18 18 18 18 18 18 18 18 18 17 16 15 15 15 15 14 14 14 14 13 12 10 9 10 9
22 22 21 21 20 20 19 18 19 19 19 18 17 18 18 18 17 16 15 15 14 14 13 13 13 11 10 9 9 8 8 8
22 23 22 22 21 20 20 19 19 19 19 19 17 17 18 18 18 15 14 14 13 13 12 12 12 10 11 9 8 8 8 7
23 24 22 22 21 21 20 19 19 19 19 19 18 17 17 18 16 15 14 13 13 13 12 12 11 11 9 8 9 8 8 7
22 23 23 22 21 21 21 19 19 19 20 20 19 17 16 14 15 14 13 13 12 12 12 11 11 9 8 8 8 8 7 8
22 21 22 23 21 21 21 20 20 20 20 19 17 15 16 14 15 14 13 12 12 11 11 10 9 9 8 8 8 7 8 8
23 21 20 21 22 20 21 20 20 20 18 15 13 14 13 13 12 13 12 12 11 10 9 9 8 8 8 7 8 7 7 7
23 22 22 20 18 15 14 15 15 15 11 11 11 11 11 11 10 10 9 9 9 9 9 8 7 7 7 7 7 7 8 7
22 20 18 16 14 12 11 10 11 10 10 9 9 9 9 8 8 8 8 8 8 8 7 7 7 7 7 7 7 7 6 6
19 15 13 12 11 10 10 10 9 9 9 9 9 9 8 7 7 7 6 7 7 7 7 7 7 7 6 6 6 5 4 4

GFSFLT1_925_temp_084.txt.gz
Temp
12 12 11 11 11 11 11 11 12 12 13 13 14 14 15 15 16 17 16 17 16 16 16 16 16 16 16 16 16 16 16 15
13 12 12 11 11 11 11 12 12 12 12 12 12 13 14 16 16 18 16 16 16 16 16 16 16 16 16 16 16 16 15 15
13 12 12 11 11 11 11 11 11 11 12 12 13 14 15 16 17 16 15 16 16 16 16 16 16 16 16 16 16 15 15 14
13 12 12 11 11 11 11 11 12 13 13 13 14 15 15 15 15 15 16 17 17 16 16 16 15 16 16 16 16 15 15 14
13 13 12 11 11 11 11 11 12 13 13 13 13 14 14 14 16 17 17 18 17 16 16 16 15 15 16 16 16 15 15 14
13 13 14 12 11 11 11 12 12 12 13 13 13 13 14 16 16 17 17 16 16 16 16 15 15 15 16 15 15 15 15 14
14 14 14 12 12 12 11 12 12 12 12 13 13 13 14 14 15 15 15 16 16 16 16 15 15 15 15 15 15 15 14 14
15 15 14 13 13 12 12 13 13 13 13 13 13 13 14 15 15 15 14 15 15 16 15 15 15 15 15 15 15 14 13 13
16 16 15 15 14 14 13 13 14 14 13 13 14 14 14 15 15 15 16 16 16 16 16 15 15 15 15 14 14 13 11 10
17 17 17 16 15 15 14 14 14 15 14 14 14 14 15 15 15 16 17 17 16 16 15 14 14 14 14 14 13 11 10 9
18 18 17 17 17 16 15 15 15 16 16 15 15 15 16 16 16 16 16 16 15 14 14 14 14 13 13 13 11 10 10 10
20 19 18 18 17 17 16 16 16 16 17 16 16 16 16 16 16 16 16 15 14 12 13 12 12 12 12 12 11 10 10 9
21 20 20 19 19 18 17 16 16 16 17 17 17 16 16 16 15 14 13 12 12 13 13 12 12 12 12 11 11 10 9 8
20 20 20 20 20 19 18 18 16 17 17 17 17 17 16 15 14 13 14 15 13 12 13 12 12 12 11 11 10 9 8 8
19 18 19 21 21 19 18 18 18 17 17 18 17 17 16 15 13 13 14 12 12 12 12 12 11 9 9 8 8 8 8 7
20 19 18 18 19 19 19 19 18 17 17 17 17 15 14 14 13 14 14 12 12 13 10 9 8 8 7 8 8 7 7 7
21 20 18 18 18 18 18 17 17 17 16 16 15 13 12 12 12 10 11 10 9 9 8 8 8 7 8 7 7 7 6 6
20 20 17 16 15 15 13 12 13 14 13 11 11 10 10 11 11 11 9 9 8 8 8 8 7 7 6 6 6 6 6 6
16 13 11 11 11 11 10 10 10 10 9 10 11 11 10 9 9 8 8 7 7 7 7 7 7 5 5 6 5 5 5 4

GFSFLT1_925_temp_087.txt.gz
Temp
13 12 12 12 11 11 11 11 12 13 14 14 15 16 16 16 16 16 16 17 16 16 16 16 16 16 16 16 16 15 15 15
13 12 11 11 11 11 11 11 12 13 13 13 14 14 15 15 16 16 16 17 16 16 16 16 16 16 16 16 15 15 15 15
13 12 12 11 11 11 11 11 11 12 12 13 13 14 13 14 16 16 18 17 16 16 16 16 16 16 16 15 15 15 15 14
14 13 12 11 11 11 11 11 12 12 12 13 13 12 13 14 16 15 15 16 16 16 16 16 16 15 16 16 15 16 15 14
14 13 12 11 11 11 11 11 12 12 12 12 12 13 13 14 14 15 15 16 16 16 16 15 15 15 15 15 16 15 15 15
13 12 11 11 11 11 11 11 11 11 11 12 12 13 14 14 15 15 15 16 16 16 15 15 15 15 15 15 15 15 15 15
13 12 12 11 11 11 11 11 11 12 12 12 13 13 14 14 15 15 15 16 15 16 16 16 16 16 15 15 15 15 15 15
13 12 12 12 11 10 11 11 11 12 12 12 13 13 13 14 14 15 15 16 16 17 17 16 16 15 15 15 14 14 14 14
14 13 13 13 12 11 11 11 11 11 11 11 12 12 13 13 14 15 15 16 17 17 17 16 16 15 15 14 14 14 13 12
15 15 14 13 13 12 12 12 12 12 11 12 12 12 12 13 14 14 15 15 15 16 16 16 16 15 14 14 13 13 12 12
16 16 15 15 14 13 13 12 12 12 12 12 12 13 13 13 13 13 13 14 14 14 15 15 15 14 13 13 12 12 11 11
17 16 17 16 15 14 13 13 13 13 13 13 13 13 13 13 13 13 14 14 14 14 14 13 13 12 12 12 13 13 11 10
17 17 17 16 16 15 14 13 13 14 14 14 14 14 14 14 13 13 13 13 13 13 13 13 12 12 13 11 12 11 10 10
18 18 17 17 16 16 15 14 14 14 14 15 15 15 14 14 14 13 14 13 12 12 13 12 12 12 11 11 11 11 10 9
18 17 18 18 18 17 16 16 15 15 14 15 15 15 15 15 14 13 13 12 13 14 12 11 12 11 10 9 9 9 8 8
17 18 18 18 18 18 17 16 16 15 15 15 15 15 14 14 14 14 13 13 14 14 11 10 11 10 9 8 8 8 7 8
18 18 17 16 17 17 17 17 16 16 15 15 15 15 14 14 13 13 12 12 11 11 10 10 10 9 9 8 8 7 7 6
19 17 18 18 16 17 16 15 15 15 15 13 12 12 12 12 12 12 12 11 11 10 9 9 8 8 7 7 7 7 6 5
16 14 12 11 11 12 12 11 11 12 11 10 11 11 12 12 11 11 11 10 9 8 7 7 7 7 7 6 6 5 5 4

GFSFLT1_925_temp_090.txt.gz
Temp
13 12 12 12 12 12 12 12 12 12 12 12 13 13 14 15 16 15 16 16 16 16 17 16 16 15 15 15 15 15 15 15
13 12 12 11 11 12 11 11 11 12 12 12 13 14 15 15 16 16 16 16 15 16 16 16 16 15 15 15 15 15 14 14
13 12 11 12 11 11 11 11 11 12 12 13 12 13 14 14 16 17 17 17 16 16 16 16 16 15 15 15 15 14 14 14
14 13 12 11 11 11 11 11 11 12 12 13 12 13 13 14 14 16 15 15 16 17 17 16 16 15 15 15 15 15 14 13
13 14 12 11 11 11 11 12 11 12 12 13 13 13 13 15 15 15 15 15 15 16 16 16 15 15 15 15 15 15 15 14
12 14 13 12 11 11 11 11 11 12 12 13 13 13 13 14 15 15 15 15 15 15 15 15 15 15 15 15 15 14 14 14
12 13 12 12 12 11 11 11 11 11 12 12 13 13 13 13 14 14 14 15 15 15 15 15 16 15 15 15 14 14 14 14
12 11 11 11 11 11 10 10 10 10 11 12 12 13 13 13 14 14 14 14 15 16 16 16 16 15 15 15 15 14 14 13
12 12 11 11 10 10 10 10 10 10 10 11 11 12 12 13 13 13 14 14 15 16 16 16 16 15 15 15 14 13 13 13
13 12 12 12 11 10 10 10 10 11 11 11 11 11 12 12 12 13 13 14 14 15 15 15 15 15 15 14 14 14 13 13
14 13 13 13 12 11 10 11 11 11 12 12 12 12 12 12 12 12 13 13 14 14 15 15 14 14 14 13 13 13 11 11
15 15 15 14 13 12 11 11 11 12 12 12 12 12 12 13 13 13 13 13 14 15 15 15 14 14 14 12 12 12 11 10
15 14 15 14 13 13 12 12 12 12 13 13 12 12 12 12 13 13 13 13 14 14 13 13 12 12 12 12 12 11 13 9
15 14 15 15 15 14 13 13 12 13 13 13 13 13 12 13 13 13 13 13 13 13 12 12 12 12 12 13 12 11 11 9
15 14 15 15 15 15 14 14 14 13 13 14 13 13 13 13 13 13 13 13 13 13 12 14 12 11 12 12 11 10 9 8
16 15 15 15 15 15 15 15 14 14 13 13 14 13 13 13 13 13 13 13 12 12 12 12 11 11 10 10 10 9 9 8
18 17 15 15 16 16 15 15 14 14 13 13 13 13 14 13 13 13 13 12 12 12 12 12 11 10 9 10 10 9 8 7
17 17 16 15 15 16 15 15 15 15 13 13 13 13 14 13 13 12 12 12 12 12 12 11 11 10 10 9 8 7 6 5
17 15 11 10 10 12 12 12 13 13 12 11 11 11 11 12 12 12 12 12 11 10 10 9 8 8 8 7 6 6 5 4

GFSFLT1_925_temp_096.txt.gz
Temp
20 18 16 14 13 12 13 13 13 13 13 13 13 14 14 14 14 14 14 14 14 16 16 15 16 16 15 16 16 16 16 17
20 17 15 13 13 12 12 12 12 13 13 13 13 13 13 13 13 14 14 13 14 15 15 15 16 16 16 15 15 15 16 15
20 17 15 13 13 13 12 12 12 12 13 13 13 13 13 13 13 13 13 13 14 14 15 15 16 16 15 14 15 15 14 13
21 18 15 14 13 14 13 12 12 12 13 13 13 12 12 12 13 13 13 14 14 14 15 15 15 16 15 14 14 14 15 12
22 20 16 13 13 14 13 13 12 12 12 12 13 12 12 13 12 13 13 14 14 15 15 15 15 15 15 14 14 14 15 15
23 21 18 14 13 13 13 13 11 12 12 12 12 12 13 13 14 14 14 15 15 15 16 16 14 14 14 14 14 14 15 16
23 21 20 17 14 14 13 13 12 11 13 13 13 14 13 12 13 13 14 14 15 16 16 16 16 14 15 14 14 14 14 14
23 22 21 19 16 15 14 13 12 12 13 13 13 13 14 13 13 14 15 14 14 16 16 15 15 16 15 15 14 14 14 13
23 23 22 19 17 15 14 14 13 12 12 12 14 15 13 14 15 15 14 15 15 15 15 16 16 16 15 15 15 15 14 14
24 23 21 20 18 16 14 14 14 13 13 13 13 14 14 15 15 15 16 16 16 15 15 15 15 15 15 15 15 15 14 14
24 24 22 20 18 17 15 15 15 14 14 14 14 14 14 15 15 15 15 16 16 16 15 15 15 15 15 15 15 15 14 14
24 24 22 20 18 17 15 14 15 15 15 14 14 14 14 14 15 15 15 15 15 15 15 15 15 15 15 15 15 15 15 15
25 24 23 21 19 18 15 13 13 14 15 15 15 15 15 14 14 15 15 15 15 15 15 15 15 15 15 15 15 14 13 14
25 24 23 22 20 19 18 15 14 15 15 15 15 15 15 14 14 14 14 14 14 14 14 15 15 15 15 15 14 12 13 12
25 24 24 23 21 20 19 18 17 16 16 16 16 15 15 15 14 14 14 14 14 14 14 15 15 15 15 15 13 12 12 12
26 25 25 24 22 21 20 19 18 17 17 17 16 16 15 15 14 14 14 14 14 14 15 15 15 15 14 14 13 12 12 11
28 26 25 25 23 21 20 20 18 17 17 17 17 16 16 15 15 15 15 15 15 15 15 15 15 14 12 12 12 11 11 10
27 27 25 25 23 21 21 19 18 17 17 17 17 16 16 16 15 15 15 14 14 14 13 13 12 11 11 11 10 9 9 7
26 26 23 22 22 21 20 19 18 17 17 17 16 16 15 15 15 15 14 12 11 10 8 8 7 6 7 8 7 6 4 2

GFSFLT1_925_temp_099.txt.gz
Temp
25 23 21 18 16 14 14 14 13 13 13 13 14 13 14 14 15 14 14 15 15 16 17 16 18 18 18 18 18 18 18 19
26 23 20 18 15 14 13 13 13 13 13 13 14 14 14 14 15 14 14 14 14 16 16 16 17 17 17 17 17 17 18 18
25 22 20 17 15 14 13 13 13 13 13 13 13 13 14 14 14 14 14 13 14 15 16 16 16 17 17 17 17 17 18 17
26 23 21 18 16 15 14 13 13 12 13 13 13 13 13 13 14 13 13 12 13 13 14 15 16 17 16 16 16 17 17 15
27 24 21 19 17 15 16 14 13 13 13 14 13 14 13 13 13 13 13 12 12 13 14 15 16 16 16 15 15 16 17 16
27 25 22 20 18 16 15 14 13 13 13 13 13 12 12 13 13 13 13 12 13 13 15 15 15 16 16 16 15 15 16 16
28 26 23 20 17 16 15 14 13 12 12 13 13 13 12 13 12 12 12 12 13 13 15 15 15 15 15 15 15 14 15 16
27 26 24 21 17 16 15 15 13 13 13 13 13 12 13 13 13 13 13 13 12 13 14 15 15 15 15 15 15 16 15 15
27 26 25 23 19 18 16 15 15 13 13 14 14 14 14 13 14 14 14 14 14 13 14 15 15 15 15 15 16 16 16 15
28 27 25 24 21 19 17 17 16 15 14 15 15 15 15 15 14 14 15 15 15 14 15 15 15 15 15 16 15 16 15 15
28 27 26 24 22 20 18 18 18 16 15 15 15 16 15 15 15 15 15 15 16 15 15 15 15 15 15 15 15 15 15 15
28 28 26 24 22 21 18 19 19 17 17 15 15 16 16 16 16 16 16 16 16 17 16 16 16 16 16 16 15 15 15 16
29 28 27 25 23 22 19 19 19 19 17 16 16 16 16 16 16 16 16 16 16 16 16 16 16 16 16 16 16 16 16 16
28 28 27 26 24 22 21 19 19 19 19 18 17 17 16 16 16 16 16 16 16 16 16 16 16 16 16 16 16 16 16 16
28 28 27 26 25 23 22 19 18 18 18 18 18 18 17 17 17 16 16 16 16 16 16 16 16 16 16 16 17 16 16 16
29 28 27 27 26 24 23 21 19 18 18 18 18 18 17 17 17 16 16 16 16 16 16 16 16 16 16 16 16 16 15 14
30 29 28 27 26 25 24 22 21 19 19 19 19 18 17 17 17 16 16 16 16 16 16 16 16 14 14 15 15 14 12 10
29 29 29 28 27 25 24 23 22 20 20 20 19 19 18 18 17 17 16 16 16 14 11 11 9 8 9 10 10 8 7 5
29 28 28 28 27 25 24 23 22 20 20 20 19 19 18 18 17 13 11 12 10 8 6 6 5 3 4 5 6 4 2 0

GFSFLT1_925_temp_102.txt.gz
Temp
27 25 23 20 18 16 15 14 15 15 14 14 15 15 15 15 14 15 15 15 15 17 18 18 18 18 19 18 18 18 18 18
26 25 22 19 16 15 14 14 14 14 14 14 14 14 14 15 15 14 15 15 16 16 18 18 18 18 18 18 18 18 18 18
25 24 21 17 16 15 14 14 14 13 14 13 13 14 14 14 15 14 14 14 15 16 17 18 18 18 17 18 18 18 18 18
25 23 21 17 16 16 14 14 14 14 14 13 13 13 14 14 14 14 14 14 14 15 16 17 17 17 17 17 17 17 18 17
26 24 21 18 16 16 16 14 14 13 13 13 14 13 14 14 14 14 13 13 13 14 15 16 17 15 16 17 17 17 17 16
26 24 22 20 17 15 16 14 14 13 13 13 13 13 13 13 13 13 13 13 13 14 14 14 15 15 16 16 15 16 16 16
28 25 23 21 17 16 16 15 14 13 13 13 13 13 13 13 13 12 12 12 11 12 13 14 14 14 14 14 15 16 16 16
27 25 23 21 17 16 15 14 13 13 13 13 13 13 13 13 12 12 12 12 12 12 12 13 13 13 13 15 15 15 15 15
27 26 23 21 18 16 15 14 14 13 13 13 13 13 13 12 12 12 12 12 12 12 12 12 13 14 15 15 14 15 15 15
27 26 24 21 18 16 16 15 15 13 13 13 13 13 13 13 13 13 13 12 12 12 12 13 14 15 15 15 15 15 15 16
28 27 24 22 20 18 17 16 16 14 14 14 13 14 14 13 13 13 13 13 14 13 14 14 14 15 15 15 15 15 15 15
28 27 25 24 21 20 18 17 17 16 15 15 15 14 15 14 14 14 14 14 14 14 14 15 14 14 15 15 15 15 15 15
28 27 25 24 22 20 19 19 19 17 16 15 15 15 15 15 14 14 15 15 15 15 15 14 14 15 15 15 15 15 15 15
29 28 26 25 23 22 19 19 19 18 17 16 15 16 16 16 16 16 16 16 16 16 16 15 15 15 16 16 16 16 16 16
28 28 27 25 24 22 21 19 20 19 18 17 16 16 16 16 16 16 16 16 16 16 16 16 16 16 16 16 16 16 16 16
28 28 27 26 25 23 22 20 20 20 19 18 17 17 16 16 16 16 16 16 16 16 16 16 16 16 16 16 16 16 14 13
28 29 28 27 25 24 23 21 19 19 19 19 19 18 17 17 17 17 16 16 16 16 16 16 14 12 10 14 14 13 11 9
26 28 28 27 26 25 23 22 20 19 19 19 19 18 18 17 17 17 16 16 12 12 10 10 8 6 7 10 11 8 6 3
26 26 26 28 27 25 25 23 21 19 19 19 19 19 18 18 16 11 11 10 8 6 4 3 3 2 3 4 4 3 1 -0

GFSFLT1_925_temp_105.txt.gz
Temp
23 23 21 19 18 18 17 16 16 15 16 15 15 15 15 15 15 15 15 17 17 16 15 16 16 16 17 17 17 18 18 17
22 21 19 18 17 16 16 15 15 15 15 15 15 15 15 15 15 15 16 16 17 16 17 17 17 16 17 17 18 18 18 17
21 18 17 17 16 15 15 14 15 15 14 14 14 15 15 15 14 15 15 16 16 16 16 17 17 17 17 17 18 18 18 17
20 18 16 16 15 16 14 14 15 14 14 14 14 14 14 14 15 14 14 15 15 16 16 17 17 17 17 17 18 18 18 17
20 18 15 14 15 16 15 14 14 14 14 14 13 13 13 13 14 14 14 14 15 15 17 17 17 16 16 16 17 18 18 17
20 19 16 15 16 16 15 15 14 14 13 13 13 13 13 14 14 14 13 13 13 14 16 16 16 15 16 15 17 17 17 17
21 19 16 15 16 16 16 15 14 14 13 13 13 13 13 13 14 13 13 13 13 13 15 15 15 15 16 16 16 16 15 15
20 19 17 15 14 15 15 15 14 14 13 13 13 13 13 13 13 13 12 12 12 12 13 14 15 15 16 15 15 15 14 14
21 19 18 15 14 15 15 14 14 14 13 13 13 13 13 13 13 12 12 12 12 12 12 12 13 14 14 13 14 14 15 15
21 20 18 15 15 14 15 14 15 14 14 13 13 13 13 13 12 12 12 12 12 12 12 12 12 13 13 13 13 14 15 14
22 20 18 16 15 15 15 14 14 14 13 13 13 13 13 13 12 12 12 12 12 12 12 11 12 12 13 13 13 14 14 15
22 21 19 17 16 15 15 14 15 14 13 12 13 13 13 13 13 12 12 12 12 11 11 11 12 13 14 13 13 14 15 14
23 22 19 17 16 15 15 14 14 14 14 13 13 13 13 13 13 13 13 12 12 13 12 12 12 13 13 14 14 15 14 14
24 22 20 18 18 16 16 16 15 14 15 15 14 14 14 13 13 13 13 13 13 13 13 13 13 13 13 14 14 14 14 15
20 21 22 19 19 17 17 16 16 15 14 15 15 14 14 14 14 14 14 14 14 14 14 14 14 14 14 14 14 15 15 14
24 19 19 20 19 18 17 17 17 16 15 14 14 15 15 15 15 15 14 14 15 15 15 15 15 14 14 14 15 15 14 12
25 24 19 20 20 19 18 18 18 17 16 15 14 14 15 15 15 15 15 15 15 15 15 14 14 12 12 14 14 12 10 7
22 24 24 17 20 21 19 18 18 17 17 16 15 15 15 15 15 15 15 14 13 12 11 10 9 7 9 10 11 9 6 2
16 18 18 22 23 21 20 18 18 18 17 17 16 16 15 15 14 11 10 8 8 6 5 5 5 3 4 5 6 3 0 -1

GFSFLT1_925_temp_108.txt.gz
Temp
22 21 19 18 18 18 18 17 16 16 16 16 15 14 15 15 14 15 15 15 14 14 14 14 15 15 15 16 16 16 17 17
21 18 17 16 17 18 17 16 16 16 15 15 15 14 14 14 15 14 14 15 14 14 14 15 15 15 16 16 15 16 16 17
18 16 16 16 16 17 16 15 15 15 15 15 15 15 14 14 14 14 15 15 14 14 14 15 15 15 16 16 16 15 16 17
17 16 14 14 14 15 15 15 15 15 15 15 14 14 14 14 14 14 14 14 14 14 15 15 15 15 15 15 16 16 16 16
19 17 14 14 14 15 15 15 15 15 14 14 14 14 14 14 14 14 14 14 14 14 15 15 15 15 15 15 16 16 16 15
19 17 16 14 14 14 14 14 15 14 14 14 14 14 14 14 14 14 14 14 14 14 14 15 14 15 15 15 16 17 17 15
20 18 15 13 13 14 14 14 14 14 14 14 14 13 13 13 13 13 13 14 13 14 14 14 14 14 15 16 16 16 15 15
19 15 15 13 13 13 13 14 13 14 14 13 13 13 13 13 13 14 14 13 13 13 13 14 14 14 15 15 14 13 13 13
19 16 15 14 14 13 14 13 13 13 14 13 13 13 13 13 13 13 13 13 13 12 12 12 13 14 13 13 12 12 13 14
19 17 15 15 14 13 13 13 13 13 13 13 13 13 13 13 13 13 13 13 13 12 12 12 13 13 13 12 12 13 13 13
19 18 15 15 14 14 13 14 14 14 13 13 13 13 13 13 13 12 12 12 12 12 12 12 12 12 11 12 12 13 13 13
19 19 16 15 14 13 13 14 14 14 13 13 13 13 13 13 13 13 13 12 12 12 12 11 11 12 12 12 12 13 13 13
18 19 16 15 14 13 13 13 14 14 13 13 13 13 13 13 13 13 12 12 12 12 11 12 12 11 12 12 12 12 13 13
19 18 17 15 14 14 13 13 13 13 13 12 12 12 13 12 13 13 12 12 12 11 11 11 11 12 12 13 13 13 13 13
19 17 17 15 15 14 14 13 13 13 13 13 12 12 12 12 12 12 12 12 12 12 12 12 12 12 12 13 13 13 13 12
19 18 17 16 15 15 15 14 13 13 14 14 13 12 13 13 12 12 13 12 12 13 13 12 12 12 12 12 12 12 12 11
15 18 17 17 16 15 15 15 14 14 13 14 14 13 13 13 13 13 13 13 12 12 12 12 12 11 12 12 13 12 10 7
14 14 13 12 18 17 16 15 15 14 14 13 13 14 13 13 13 13 12 12 12 11 10 9 9 8 9 11 11 9 6 2
12 11 11 10 10 17 16 16 15 14 14 14 13 13 13 13 13 12 10 9 9 8 6 6 6 3 5 7 8 4 1 -1

GFSFLT1_925_temp_111.txt.gz
Temp
21 22 20 18 19 19 18 17 17 16 16 15 15 15 15 14 14 13 13 14 14 15 14 14 15 15 15 15 15 16 16 16
21 19 17 16 17 17 17 16 16 16 15 15 14 14 14 14 14 14 13 14 14 14 13 14 14 15 15 15 15 16 15 15
18 15 15 16 15 16 16 16 16 16 16 15 15 15 14 14 14 14 14 14 14 14 14 13 14 14 15 14 14 15 16 15
17 15 14 15 14 15 15 16 15 15 16 15 14 15 14 14 14 14 14 14 14 13 14 14 14 14 14 15 15 15 15 14
18 15 14 14 14 14 15 15 15 15 15 15 15 14 14 14 14 14 14 14 14 14 14 14 14 14 14 14 15 15 15 14
18 16 15 14 14 14 14 15 15 15 14 14 15 15 15 14 14 14 14 14 14 14 14 13 13 14 14 14 14 15 16 14
18 18 16 14 13 13 14 14 14 15 15 14 14 14 14 14 14 14 14 14 14 14 14 14 14 14 14 14 14 15 15 15
19 17 14 13 12 13 13 13 14 14 14 14 14 15 15 15 14 13 13 14 14 14 14 14 13 14 14 14 14 15 15 15
19 18 15 14 13 12 13 13 13 13 14 14 14 14 14 14 14 14 13 13 14 13 13 13 13 13 14 14 14 14 14 14
19 17 15 14 13 13 13 13 13 13 14 14 14 14 13 13 13 14 13 13 13 13 13 13 13 13 13 13 12 13 13 12
18 16 15 14 14 13 13 13 13 12 14 13 13 13 12 12 13 13 13 13 13 13 13 13 13 13 13 12 12 13 12 12
16 17 15 15 14 13 12 12 12 12 14 14 13 13 13 12 12 13 13 13 12 12 12 12 12 12 12 12 12 12 12 11
16 17 15 13 13 13 12 12 12 12 13 14 13 13 13 12 12 12 12 12 12 12 12 12 12 12 12 12 11 12 11 11
16 17 15 14 14 13 13 12 12 13 13 14 13 12 13 12 12 12 12 12 12 12 12 12 11 11 11 12 12 11 11 12
16 16 15 14 14 13 13 13 13 12 13 13 13 12 12 12 12 12 12 12 12 12 11 11 12 11 12 11 11 12 11 11
15 14 15 14 14 14 13 13 13 12 12 12 12 13 13 13 12 12 12 11 11 11 11 11 11 11 11 11 12 12 11 10
14 13 13 13 13 14 14 13 13 12 12 12 12 11 12 12 12 12 12 12 12 11 11 11 11 11 12 12 12 11 10 9
12 11 11 11 10 11 14 13 13 12 13 13 13 12 11 12 12 12 12 12 11 11 11 11 11 11 11 11 11 10 7 4
11 10 9 9 8 9 13 14 13 13 13 13 13 12 11 11 11 11 11 10 10 9 8 8 8 7 9 11 10 6 2 -0

GFSFLT1_925_temp_114.txt.gz
Temp
20 22 24 23 21 18 17 18 18 18 17 16 14 14 14 14 14 14 14 14 14 14 14 14 14 14 14 14 15 14 15 14
20 21 21 19 17 16 17 16 17 17 15 14 14 14 14 14 14 14 14 13 14 14 14 13 14 14 15 14 15 14 14 13
20 18 16 16 15 16 16 16 17 16 15 14 14 14 14 14 14 14 13 13 13 13 13 13 13 13 14 14 13 12 13 14
19 17 14 14 14 14 14 15 17 16 15 14 14 14 14 14 14 13 13 14 14 14 14 14 13 14 14 14 14 14 13 13
18 17 13 14 14 14 14 15 15 15 15 14 14 14 14 14 14 14 14 14 14 14 14 13 14 14 14 14 14 14 14 13
16 17 15 14 14 14 14 14 14 14 14 14 14 14 14 14 14 14 14 14 14 13 14 14 14 13 14 14 14 14 15 14
16 17 17 14 13 14 13 13 13 14 14 14 14 14 14 14 14 14 14 14 14 13 14 14 13 14 14 15 14 14 15 15
15 16 16 13 13 13 13 13 13 13 14 14 14 14 14 14 14 14 14 14 14 14 14 13 13 14 14 14 13 14 15 15
15 15 17 14 14 13 13 13 13 13 13 14 14 14 14 14 14 14 14 14 14 14 14 13 13 13 13 13 13 14 15 15
15 15 16 14 13 13 13 13 13 13 14 14 14 14 14 14 14 14 14 14 14 14 14 14 13 13 13 13 13 13 14 14
15 15 16 16 13 13 13 13 13 13 13 13 13 14 15 15 14 13 13 13 13 13 13 14 13 13 12 12 12 13 13 12
14 15 15 16 13 13 12 12 13 13 13 13 13 14 14 14 13 13 13 13 13 13 13 13 13 13 12 12 12 12 12 12
14 14 15 14 13 13 12 12 12 12 13 13 12 13 13 13 13 12 13 13 13 13 13 13 13 12 12 12 12 12 12 11
13 14 14 13 13 13 12 12 12 12 13 13 12 12 13 13 13 12 12 12 12 12 12 12 13 12 12 12 12 12 12 12
12 13 13 13 13 13 13 12 12 12 12 13 13 12 12 12 13 12 12 12 12 12 12 12 12 12 12 12 12 11 11 11
12 12 12 12 12 13 13 12 12 12 12 13 13 12 12 12 12 12 12 12 12 12 12 12 11 11 11 11 11 11 11 10
12 12 12 11 11 10 13 12 12 12 12 12 13 12 12 12 12 12 12 12 11 11 11 11 11 11 11 11 11 11 10 9
11 10 10 9 8 8 9 12 12 12 12 12 13 12 11 12 12 12 11 11 11 11 11 11 11 11 11 11 11 10 8 6
9 8 8 7 6 7 7 10 12 11 11 12 12 11 11 11 11 11 11 10 10 10 9 9 9 9 10 11 10 7 3 1

GFSFLT1_925_temp_117.txt.gz
Temp
23 22 21 20 21 22 18 16 15 16 16 16 15 14 14 14 14 14 14 14 14 14 14 14 14 13 13 13 14 14 14 14
21 20 19 19 18 17 16 15 15 15 14 14 14 13 13 13 13 13 13 14 14 14 14 14 13 13 13 13 13 13 13 14
21 20 19 17 17 16 15 15 14 15 15 14 14 14 14 14 14 14 14 14 14 14 14 13 13 13 12 13 14 14 14 13
20 19 19 17 16 15 15 15 14 15 15 14 14 14 14 14 14 14 14 14 13 13 14 13 12 12 12 13 13 14 14 13
19 18 18 18 17 15 15 14 14 14 14 15 14 14 14 14 14 14 14 13 13 13 13 13 12 12 12 13 13 14 13 13
18 18 17 18 15 15 15 14 14 14 14 14 15 14 14 14 14 14 13 13 12 13 13 13 12 12 13 13 13 14 14 14
18 17 17 17 14 13 14 14 13 14 14 14 14 14 14 14 14 14 14 13 13 13 13 13 13 12 13 13 13 13 14 14
17 17 18 17 16 13 13 13 13 13 14 14 14 14 14 14 14 14 14 13 13 13 13 13 13 13 13 13 13 13 14 14
17 17 17 17 16 15 13 13 13 13 13 13 13 14 14 14 14 14 14 14 14 13 13 13 13 13 13 13 13 13 13 14
16 16 16 16 16 16 13 13 13 13 13 13 13 13 14 14 14 14 14 14 14 14 13 13 13 13 13 13 12 12 13 13
16 16 16 15 15 15 14 13 13 13 13 13 14 13 13 14 14 14 13 14 14 14 14 13 13 13 13 12 12 12 13 13
15 16 16 15 14 15 13 13 13 13 13 14 14 13 14 14 14 14 13 13 13 13 13 14 13 13 12 12 12 12 12 12
15 15 16 15 13 13 13 12 13 13 13 14 13 14 14 14 14 13 12 13 13 13 13 13 13 13 12 12 11 11 12 11
15 15 14 14 13 12 13 12 13 12 13 13 13 13 14 13 13 13 13 12 12 13 13 13 13 13 13 12 12 11 11 11
15 14 13 13 12 11 10 12 12 12 12 14 13 13 13 13 13 13 13 12 12 12 12 12 12 12 12 12 12 11 11 11
15 14 13 11 11 10 9 11 12 12 12 13 13 12 13 13 13 13 12 12 12 12 12 12 12 12 12 12 12 11 11 11
13 13 12 10 9 9 8 8 12 12 12 13 13 12 12 12 13 12 12 12 12 11 11 11 11 11 11 11 11 12 9 8
11 10 9 8 7 7 7 7 8 12 12 13 12 12 12 12 12 12 11 11 11 11 11 11 11 11 11 10 10 8 8 6
9 8 8 7 6 6 5 6 8 11 12 12 12 12 12 11 12 11 11 10 11 10 9 9 9 7 10 10 9 6 3 1

GFSFLT1_925_temp_120.txt.gz
Temp
27 26 25 24 23 23 22 22 22 20 19 19 17 16 15 15 15 16 16 15 15 15 15 14 14 14 13 13 15 17 17 18
26 25 24 22 22 22 22 21 20 19 18 18 16 15 14 15 14 14 14 15 15 14 14 14 14 13 13 14 15 17 18 17
25 24 23 22 22 21 21 20 20 19 17 16 16 15 15 14 14 14 14 14 14 14 14 14 14 13 13 14 15 17 18 17
24 23 23 22 22 21 21 21 19 18 19 16 17 15 15 14 14 14 14 15 15 14 14 14 13 13 13 13 15 16 17 17
23 23 23 22 21 19 20 20 19 16 17 16 17 17 17 16 15 14 14 15 14 14 14 14 13 13 13 13 14 16 17 17
22 23 22 22 20 18 18 19 16 15 16 18 18 19 19 17 15 15 15 14 14 14 13 13 13 13 13 13 14 16 16 17
22 22 22 21 20 18 16 16 16 15 15 17 18 19 18 16 15 16 15 13 13 13 13 12 12 12 12 12 13 15 16 17
21 21 22 20 20 19 17 14 15 14 14 16 17 18 17 17 16 16 15 14 12 12 12 12 11 11 12 12 13 15 15 16
21 21 21 20 19 19 19 18 15 14 13 14 15 16 16 15 16 16 15 14 13 13 12 12 11 11 12 12 13 15 15 16
21 21 20 19 18 17 18 18 16 14 13 13 14 15 17 17 17 16 15 14 14 13 13 12 12 11 11 11 12 14 14 15
20 20 20 19 18 16 14 17 16 15 13 13 15 15 17 16 16 16 15 14 14 14 13 13 12 12 11 12 12 13 13 14
20 20 19 19 18 17 14 13 14 14 13 13 15 16 16 15 14 14 14 14 14 14 14 13 13 12 12 12 11 12 13 14
20 19 19 18 17 16 14 11 13 13 13 13 15 15 16 15 15 15 14 15 15 14 14 13 13 13 12 12 12 12 13 14
20 19 19 17 16 15 14 11 10 13 13 14 14 15 16 15 15 14 13 13 13 13 13 13 13 13 12 12 12 12 13 13
19 19 18 17 16 13 12 9 10 12 13 13 14 15 16 15 15 13 13 13 12 12 13 13 13 13 13 12 12 12 11 12
19 18 18 16 14 12 10 8 9 10 12 13 14 15 15 15 14 13 13 12 12 12 12 12 12 12 12 12 12 11 11 10
17 16 15 14 12 10 8 8 8 8 12 13 14 15 15 14 14 12 12 12 12 12 12 12 12 12 12 12 12 11 10 8
15 14 13 12 11 9 7 6 6 7 10 12 14 15 15 14 13 12 12 12 11 11 11 11 10 9 11 12 11 7 5 6
13 12 11 10 9 8 6 5 6 7 8 12 13 14 14 14 13 12 11 11 10 10 9 9 8 5 10 9 7 4 3 1

GFSFLT1_925_temp_123.txt.gz
Temp
29 29 28 26 26 25 25 25 25 25 23 22 22 19 17 17 17 20 18 17 17 17 16 15 16 15 14 15 15 15 19 19
29 28 27 26 25 25 25 24 24 23 23 22 22 20 17 16 16 19 18 17 16 16 16 15 15 15 14 14 14 15 18 19
28 27 26 25 24 24 24 24 24 23 23 22 22 19 16 16 16 17 18 17 16 15 16 15 15 14 14 14 13 14 17 18
27 26 25 24 24 22 23 24 24 23 23 22 18 16 15 15 15 16 17 16 16 15 15 15 14 14 14 13 13 14 17 18
26 26 26 25 23 21 22 23 23 22 21 20 17 16 17 15 15 15 16 16 16 16 16 15 14 14 14 13 13 14 16 17
25 25 25 24 22 21 20 21 22 21 19 20 17 17 18 18 18 16 15 16 16 17 15 15 14 14 13 13 13 13 16 16
24 24 24 24 22 21 21 19 19 17 16 17 17 17 19 20 19 17 17 16 16 16 15 14 14 14 13 13 13 13 15 16
24 24 24 23 22 21 21 22 19 17 16 16 16 17 19 20 18 17 17 14 14 14 14 13 13 13 13 13 13 13 14 16
23 23 23 22 21 20 19 21 21 17 16 15 16 17 18 19 19 18 18 15 14 13 13 13 13 13 13 13 13 13 13 15
23 23 22 22 22 21 18 18 21 17 16 15 15 16 17 19 19 17 18 16 14 13 13 12 12 12 12 12 12 13 13 14
23 23 22 22 21 20 18 17 18 18 16 15 14 14 16 18 18 18 17 17 15 14 13 12 12 12 12 12 12 12 13 13
22 22 22 21 20 19 18 17 15 16 16 15 14 14 15 17 18 17 17 16 16 14 13 12 12 11 11 11 12 12 13 14
23 22 22 21 19 18 18 16 16 14 14 15 14 14 15 16 16 17 17 16 15 14 14 13 12 12 11 11 11 12 12 13
22 23 22 21 20 18 17 16 14 13 13 14 14 14 14 15 16 16 15 15 16 15 14 13 13 12 11 11 11 11 12 13
22 22 22 21 19 16 15 13 13 12 10 13 13 14 14 15 16 15 15 15 15 15 15 15 14 13 12 12 12 12 12 12
21 21 21 19 17 16 15 12 12 10 9 11 13 14 14 15 15 15 14 14 14 13 13 13 13 13 13 12 12 12 12 12
21 19 18 17 16 14 13 11 9 9 8 11 12 13 14 15 15 14 14 14 13 12 12 12 12 12 12 12 12 12 12 11
18 16 16 14 13 12 11 10 9 7 8 9 10 13 14 15 14 14 14 13 12 12 11 11 11 10 11 12 12 10 7 7
15 15 14 13 11 9 7 8 8 7 7 7 9 12 14 15 14 13 12 11 11 10 9 9 8 6 9 10 10 6 4 2

GFSFLT1_925_temp_126.txt.gz
Temp
29 29 29 28 26 26 26 26 26 25 24 22 20 18 18 19 20 20 19 20 18 18 18 17 16 16 16 16 15 15 15 15
30 29 28 27 26 25 25 25 25 25 24 23 22 19 18 18 18 20 18 19 19 18 17 17 17 15 15 16 14 14 14 15
29 28 27 26 25 25 24 24 24 24 23 23 23 22 20 18 17 18 19 18 18 18 17 16 16 15 15 15 15 14 14 15
28 26 26 25 24 23 23 23 23 24 24 23 23 22 19 17 16 17 19 18 19 18 17 16 16 15 14 14 15 14 14 14
26 26 25 25 23 22 21 21 22 24 23 23 21 18 17 16 16 16 18 17 17 17 17 16 15 15 14 14 14 14 14 14
25 25 25 24 22 21 21 20 20 22 21 21 20 17 17 16 16 16 17 16 17 16 16 16 15 14 14 14 14 13 13 14
24 24 24 24 22 21 21 21 20 19 18 18 18 18 17 16 16 16 16 16 16 16 17 16 15 14 14 14 14 13 13 14
23 24 23 23 22 21 20 20 21 19 17 17 17 17 17 18 18 17 16 16 16 16 17 15 15 14 14 14 13 13 13 13
23 24 23 23 22 21 19 19 19 19 17 17 16 16 16 17 17 17 17 17 16 16 16 15 15 14 14 14 14 13 13 13
23 23 23 22 22 21 19 18 17 18 18 17 16 15 16 17 17 18 18 16 16 15 14 13 14 14 13 13 13 13 13 13
22 23 23 22 21 20 19 18 17 16 16 16 17 16 15 16 17 17 18 17 16 14 14 13 13 13 13 13 13 13 13 12
22 22 22 22 21 19 18 17 16 16 15 14 15 15 15 15 16 17 18 17 16 15 14 13 12 12 12 12 12 13 13 12
21 22 22 22 21 20 18 16 15 14 14 13 14 15 15 15 15 16 17 17 16 16 14 13 12 12 12 12 12 12 13 13
21 21 21 22 21 18 17 15 13 13 12 12 12 14 14 14 15 16 17 16 16 15 14 13 13 13 12 12 12 12 12 13
21 21 21 19 18 17 16 15 13 12 11 11 11 12 14 14 14 15 16 16 16 15 14 14 13 13 12 12 11 12 12 12
21 21 19 17 16 15 15 14 13 11 9 10 11 10 13 14 14 15 15 15 16 16 15 14 14 13 12 12 11 11 11 12
20 19 17 16 15 14 13 11 10 10 10 9 10 9 11 13 14 14 15 15 15 14 14 13 13 13 12 12 12 11 11 11
17 15 14 13 13 11 10 8 8 8 8 8 8 7 9 13 13 14 14 14 13 13 12 12 12 12 12 12 12 12 12 11
13 13 13 12 11 8 6 6 7 7 7 7 6 5 7 11 13 13 13 13 12 11 11 10 10 10 11 12 12 10 7 5

GFSFLT1_925_temp_132.txt.gz
Temp
24 26 25 28 27 26 25 22 21 20 20 21 21 21 20 20 19 20 20 20 19 19 19 18 18 17 16 15 16 16 16 16
25 24 24 23 24 24 22 21 20 20 21 19 18 18 19 19 20 20 20 20 20 19 18 17 18 17 16 15 15 15 14 15
23 22 20 23 23 23 23 22 22 21 22 22 22 21 20 20 19 20 20 20 20 20 18 17 17 16 15 15 15 14 14 14
21 19 18 19 20 21 21 21 21 21 21 21 20 19 19 18 17 19 19 19 19 20 19 17 16 16 16 15 15 14 14 14
22 19 17 19 20 20 20 20 20 20 20 21 20 19 18 18 19 17 19 19 20 19 19 18 18 16 16 16 15 15 14 14
20 18 17 19 20 19 20 20 20 20 19 19 18 18 18 19 18 17 18 20 20 20 19 18 16 16 16 15 15 14 14 14
19 18 18 18 19 19 19 19 19 20 18 18 18 17 17 17 17 16 17 20 20 19 19 19 18 16 16 15 16 15 14 14
18 17 17 17 17 18 18 18 17 17 17 17 17 17 16 16 17 17 16 18 17 18 18 17 17 16 16 16 15 15 14 14
18 17 16 16 17 17 17 17 16 16 16 16 15 16 16 16 16 15 17 18 18 18 18 17 17 16 16 15 15 15 14 14
17 17 16 16 16 17 17 16 15 15 15 14 15 15 15 15 15 16 16 17 17 17 17 16 16 17 15 15 14 14 14 14
15 16 15 15 15 15 16 15 14 14 14 13 13 14 14 14 14 15 15 15 16 16 16 16 15 15 15 14 14 14 14 14
11 16 16 15 14 13 13 14 14 13 12 12 12 12 13 13 13 14 15 15 15 15 16 16 15 15 14 14 14 14 14 14
11 13 14 13 12 12 12 12 11 11 11 11 11 11 11 12 12 12 13 14 14 15 15 16 16 16 15 14 14 14 13 13
14 13 12 12 12 11 10 9 9 9 9 9 9 9 9 9 10 10 12 13 14 14 14 15 15 15 15 14 14 13 12 13
12 12 11 10 9 8 7 7 7 7 7 7 7 7 7 7 8 9 9 11 13 14 14 15 15 15 14 13 12 12 12 12
10 10 8 7 7 6 5 5 5 6 6 5 5 5 5 6 6 7 8 11 12 14 14 14 14 14 14 13 12 11 12 12
9 9 8 6 5 4 3 3 3 4 4 5 4 3 3 3 4 5 6 8 11 13 14 13 13 14 14 14 13 12 12 12
7 7 6 5 3 3 2 2 2 2 3 2 2 2 2 2 2 3 4 5 9 11 14 13 13 13 15 14 13 12 12 12
6 6 5 3 2 1 1 1 1 1 1 0 0 0 0 1 1 2 3 3 6 10 13 13 14 14 14 13 13 12 12 11

GFSFLT1_925_temp_135.txt.gz
Temp
22 24 25 25 26 24 24 22 22 20 19 18 17 18 20 19 19 19 19 17 17 17 17 17 17 17 16 15 16 15 16 16
22 24 25 25 24 23 24 20 20 19 18 18 17 17 18 19 19 19 19 18 18 18 18 17 18 17 16 15 15 15 14 14
19 22 19 18 19 19 23 21 20 19 18 18 18 17 18 21 20 19 19 19 19 18 17 17 17 16 16 15 15 14 14 14
19 19 16 18 17 17 17 18 18 19 19 18 19 18 19 17 17 18 18 19 19 18 17 17 16 16 15 15 15 15 14 14
18 17 16 18 18 19 19 19 19 19 19 20 20 19 18 18 18 20 20 19 19 20 18 17 16 16 15 15 15 15 15 14
17 16 17 18 19 19 19 19 19 19 20 20 19 18 18 18 18 18 19 20 19 19 19 18 16 16 15 15 15 14 14 15
16 15 17 15 17 18 17 18 17 18 18 18 18 17 17 17 17 16 17 19 19 19 19 18 17 16 15 15 15 15 14 14
16 15 15 14 15 15 16 16 15 16 16 16 16 16 16 16 16 15 16 16 17 19 19 18 16 16 15 15 15 14 14 14
15 16 15 14 15 15 15 15 15 15 15 16 16 16 16 15 15 15 15 15 16 17 19 19 18 17 15 15 15 14 14 14
14 14 14 14 13 14 14 13 13 14 14 14 15 14 14 14 14 14 15 15 16 16 16 18 18 18 16 15 15 15 15 14
11 12 12 12 12 12 11 12 11 11 12 12 13 13 13 13 13 13 14 14 15 15 15 16 17 17 16 15 15 15 14 14
11 12 12 11 11 10 10 10 10 9 10 10 10 11 11 11 11 12 12 13 14 14 14 15 15 15 15 15 15 14 14 14
10 10 10 9 9 8 7 7 7 7 8 8 8 9 9 9 10 10 11 12 13 14 14 15 15 15 15 14 14 14 14 14
8 8 8 7 6 6 6 5 6 6 6 7 7 7 6 7 8 8 9 10 11 12 14 14 14 14 14 14 14 14 14 14
8 7 6 6 5 5 4 4 4 5 5 5 5 4 5 5 6 7 7 8 9 11 12 13 14 14 14 14 14 14 13 13
6 6 6 5 4 3 3 2 2 3 3 4 3 3 3 4 4 5 6 7 7 9 10 13 13 13 13 13 14 14 13 13
7 6 5 4 3 2 2 1 1 1 2 2 1 1 1 2 3 3 3 4 5 6 9 10 13 13 13 13 14 13 13 12
5 4 3 2 1 0 0 0 -0 -0 -0 -0 -0 -0 -0 0 1 1 2 2 3 3 5 8 12 13 13 13 14 13 12 12
3 2 2 0 -1 -1 -1 -1 -2 -2 -2 -2 -2 -2 -1 -1 0 1 1 2 2 3 4 7 9 13 13 13 12 12 12 12